Time,TemperatureF,DewpointF,PressureIn,WindDirection,WindDirectionDegrees,WindSpeedMPH,WindSpeedGustMPH,Humidity,HourlyPrecipIn,Conditions,Clouds,dailyrainin,SoftwareType,DateUTC
2013-05-24 00:02:00,51.0,41.6,30.47,ENE,67,0.3,2.3,70,0.00,CLR,,0.00,WeatherDisplay:10.37,2013-05-24 05:02:00,
2013-05-24 00:03:00,51.0,41.9,30.47,ENE,67,1.4,3.5,71,0.00,CLR,,0.00,WeatherDisplay:10.37,2013-05-24 05:03:00,
2013-05-24 00:04:00,51.0,42.3,30.47,ENE,67,2.5,4.0,72,0.00,CLR,,0.00,WeatherDisplay:10.37,2013-05-24 05:04:00,
2013-05-24 00:07:00,51.0,42.3,30.47,ENE,67,2.1,4.0,72,0.00,CLR,,0.00,WeatherDisplay:10.37,2013-05-24 05:07:00,
2013-05-24 00:08:00,51.0,42.3,30.47,ENE,67,2.6,3.5,72,0.00,CLR,,0.00,WeatherDisplay:10.37,2013-05-24 05:08:00,
2013-05-24 00:09:00,51.0,42.3,30.47,ENE,67,1.8,3.5,72,0.00,CLR,,0.00,WeatherDisplay:10.37,2013-05-24 05:09:00,
2013-05-24 00:13:00,51.0,42.3,30.47,ENE,67,0.9,3.5,72,0.00,CLR,,0.00,WeatherDisplay:10.37,2013-05-24 05:13:00,
2013-05-24 00:14:00,51.0,42.6,30.47,ENE,67,1.7,3.5,73,0.00,CLR,,0.00,WeatherDisplay:10.37,2013-05-24 05:14:00,
2013-05-24 00:18:00,50.0,41.7,30.49,ENE,67,2.4,4.0,73,0.00,CLR,,0.00,WeatherDisplay:10.37,2013-05-24 05:18:00,
2013-05-24 00:19:00,50.0,41.7,30.49,ENE,67,3.0,4.0,73,0.00,CLR,,0.00,WeatherDisplay:10.37,2013-05-24 05:19:00,
2013-05-24 00:20:00,50.0,41.7,30.49,ENE,67,3.9,4.6,73,0.00,CLR,,0.00,WeatherDisplay:10.37,2013-05-24 05:20:00,
2013-05-24 00:23:00,50.0,41.7,30.49,ENE,67,3.8,5.8,73,0.00,CLR,,0.00,WeatherDisplay:10.37,2013-05-24 05:23:00,
2013-05-24 00:24:00,50.0,42.0,30.49,ENE,67,2.2,4.6,74,0.00,CLR,,0.00,WeatherDisplay:10.37,2013-05-24 05:24:00,
2013-05-24 00:25:00,50.0,42.0,30.49,ENE,67,2.8,4.6,74,0.00,CLR,,0.00,WeatherDisplay:10.37,2013-05-24 05:25:00,
2013-05-24 00:28:00,50.0,42.0,30.49,ENE,67,3.7,4.6,74,0.00,CLR,,0.00,WeatherDisplay:10.37,2013-05-24 05:28:00,
2013-05-24 00:29:00,50.0,42.4,30.49,ENE,67,2.9,4.0,75,0.00,CLR,,0.00,WeatherDisplay:10.37,2013-05-24 05:29:00,
2013-05-24 00:30:00,50.0,42.4,30.49,ENE,67,3.0,3.5,75,0.00,CLR,,0.00,WeatherDisplay:10.37,2013-05-24 05:30:00,
2013-05-24 00:33:00,50.0,42.4,30.49,ENE,67,1.6,3.5,75,0.00,CLR,,0.00,WeatherDisplay:10.37,2013-05-24 05:33:00,
2013-05-24 00:34:00,50.0,42.0,30.49,ENE,67,3.1,3.5,74,0.00,CLR,,0.00,WeatherDisplay:10.37,2013-05-24 05:34:00,
2013-05-24 00:35:00,50.0,42.0,30.49,ENE,67,2.6,4.0,74,0.00,CLR,,0.00,WeatherDisplay:10.37,2013-05-24 05:35:00,
2013-05-24 00:38:00,51.0,43.4,30.49,ENE,67,0.3,3.5,75,0.00,CLR,,0.00,WeatherDisplay:10.37,2013-05-24 05:38:00,
2013-05-24 00:40:00,51.0,43.4,30.49,ENE,67,0.0,1.1,75,0.00,CLR,,0.00,WeatherDisplay:10.37,2013-05-24 05:40:00,
2013-05-24 00:43:00,51.0,43.0,30.49,WSW,247,0.0,1.1,74,0.00,CLR,,0.00,WeatherDisplay:10.37,2013-05-24 05:43:00,
2013-05-24 00:45:00,51.0,42.6,30.49,ENE,67,0.0,0.0,73,0.00,CLR,,0.00,WeatherDisplay:10.37,2013-05-24 05:45:00,
2013-05-24 00:46:00,51.0,43.0,30.49,ENE,67,0.0,0.0,74,0.00,CLR,,0.00,WeatherDisplay:10.37,2013-05-24 05:46:00,
2013-05-24 00:48:00,51.0,43.0,30.49,ENE,67,0.0,0.0,74,0.00,CLR,,0.00,WeatherDisplay:10.37,2013-05-24 05:48:00,
2013-05-24 00:50:00,51.0,43.0,30.49,ENE,67,0.0,0.0,74,0.00,CLR,,0.00,WeatherDisplay:10.37,2013-05-24 05:50:00,
2013-05-24 00:51:00,51.0,43.0,30.49,ENE,67,0.0,0.0,74,0.00,CLR,,0.00,WeatherDisplay:10.37,2013-05-24 05:51:00,
2013-05-24 00:54:00,50.0,42.4,30.49,SSE,157,0.1,0.0,75,0.00,CLR,,0.00,WeatherDisplay:10.37,2013-05-24 05:54:00,
2013-05-24 00:55:00,51.0,43.4,30.49,SSE,157,0.0,0.0,75,0.00,CLR,,0.00,WeatherDisplay:10.37,2013-05-24 05:55:00,
2013-05-24 00:56:00,50.0,42.4,30.49,SSE,157,0.0,0.0,75,0.00,CLR,,0.00,WeatherDisplay:10.37,2013-05-24 05:56:00,
2013-05-24 00:59:00,50.0,42.7,30.49,SSE,157,0.0,0.0,76,0.00,CLR,,0.00,WeatherDisplay:10.37,2013-05-24 05:59:00,
2013-05-24 01:01:00,50.0,42.7,30.49,SSE,157,0.0,0.0,76,0.00,CLR,,0.00,WeatherDisplay:10.37,2013-05-24 06:01:00,
2013-05-24 01:04:00,50.0,42.7,30.49,SSE,157,0.0,0.0,76,0.00,CLR,,0.00,WeatherDisplay:10.37,2013-05-24 06:04:00,
2013-05-24 01:06:00,50.0,42.4,30.49,SSE,157,0.0,0.0,75,0.00,CLR,,0.00,WeatherDisplay:10.37,2013-05-24 06:06:00,
2013-05-24 01:09:00,50.0,42.7,30.49,SSE,157,0.0,0.0,76,0.00,CLR,,0.00,WeatherDisplay:10.37,2013-05-24 06:09:00,
2013-05-24 01:11:00,49.0,41.8,30.49,SSE,157,0.0,0.0,76,0.00,CLR,,0.00,WeatherDisplay:10.37,2013-05-24 06:11:00,
2013-05-24 01:12:00,49.0,42.1,30.49,SSE,157,0.0,0.0,77,0.00,CLR,,0.00,WeatherDisplay:10.37,2013-05-24 06:12:00,
2013-05-24 01:15:00,49.0,42.1,30.49,SSE,157,0.0,0.0,77,0.00,CLR,,0.00,WeatherDisplay:10.37,2013-05-24 06:15:00,
2013-05-24 01:16:00,49.0,42.1,30.49,SSE,157,0.0,0.0,77,0.00,CLR,,0.00,WeatherDisplay:10.37,2013-05-24 06:16:00,
2013-05-24 01:17:00,49.0,42.1,30.49,SSE,157,0.0,0.0,77,0.00,CLR,,0.00,WeatherDisplay:10.37,2013-05-24 06:17:00,
2013-05-24 01:20:00,49.0,42.4,30.49,SSE,157,0.0,0.0,78,0.00,CLR,,0.00,WeatherDisplay:10.37,2013-05-24 06:20:00,
2013-05-24 01:21:00,49.0,42.4,30.49,SSE,157,0.0,0.0,78,0.00,CLR,,0.00,WeatherDisplay:10.37,2013-05-24 06:21:00,
2013-05-24 01:22:00,49.0,42.8,30.49,SSE,157,0.0,0.0,79,0.00,CLR,,0.00,WeatherDisplay:10.37,2013-05-24 06:22:00,
2013-05-24 01:25:00,49.0,42.8,30.49,SSE,157,0.1,0.0,79,0.00,CLR,,0.00,WeatherDisplay:10.37,2013-05-24 06:25:00,
2013-05-24 01:26:00,49.0,43.1,30.49,SSE,157,0.0,1.1,80,0.00,CLR,,0.00,WeatherDisplay:10.37,2013-05-24 06:26:00,
2013-05-24 01:27:00,49.0,43.1,30.49,SSE,157,0.0,0.0,80,0.00,CLR,,0.00,WeatherDisplay:10.37,2013-05-24 06:27:00,
2013-05-24 01:28:00,49.0,43.1,30.49,SSE,157,0.0,0.0,80,0.00,CLR,,0.00,WeatherDisplay:10.37,2013-05-24 06:28:00,
2013-05-24 01:30:00,49.0,43.1,30.49,SSE,157,0.0,0.0,80,0.00,CLR,,0.00,WeatherDisplay:10.37,2013-05-24 06:30:00,
2013-05-24 01:31:00,49.0,43.1,30.49,SSE,157,0.0,0.0,80,0.00,CLR,,0.00,WeatherDisplay:10.37,2013-05-24 06:31:00,
2013-05-24 01:32:00,49.0,43.1,30.49,SSE,157,0.0,0.0,80,0.00,CLR,,0.00,WeatherDisplay:10.37,2013-05-24 06:32:00,
2013-05-24 01:33:00,49.0,43.1,30.49,SSE,157,0.0,0.0,80,0.00,CLR,,0.00,WeatherDisplay:10.37,2013-05-24 06:33:00,
2013-05-24 01:35:00,49.0,42.8,30.49,SSE,157,0.0,0.0,79,0.00,CLR,,0.00,WeatherDisplay:10.37,2013-05-24 06:35:00,
2013-05-24 01:36:00,49.0,42.8,30.49,SSE,157,0.0,0.0,79,0.00,CLR,,0.00,WeatherDisplay:10.37,2013-05-24 06:36:00,
2013-05-24 01:37:00,49.0,42.8,30.49,SSE,157,0.0,0.0,79,0.00,CLR,,0.00,WeatherDisplay:10.37,2013-05-24 06:37:00,
2013-05-24 01:38:00,49.0,42.8,30.49,SSE,157,0.0,0.0,79,0.00,CLR,,0.00,WeatherDisplay:10.37,2013-05-24 06:38:00,
2013-05-24 01:40:00,49.0,42.8,30.49,SSE,157,0.0,0.0,79,0.00,CLR,,0.00,WeatherDisplay:10.37,2013-05-24 06:40:00,
2013-05-24 01:41:00,49.0,42.8,30.49,SSE,157,0.0,0.0,79,0.00,CLR,,0.00,WeatherDisplay:10.37,2013-05-24 06:41:00,
2013-05-24 01:42:00,49.0,42.8,30.49,SSE,157,0.0,0.0,79,0.00,CLR,,0.00,WeatherDisplay:10.37,2013-05-24 06:42:00,
2013-05-24 01:43:00,49.0,42.8,30.49,SSE,157,0.0,0.0,79,0.00,CLR,,0.00,WeatherDisplay:10.37,2013-05-24 06:43:00,
2013-05-24 01:46:00,49.0,42.8,30.49,SSE,157,0.0,0.0,79,0.00,CLR,,0.00,WeatherDisplay:10.37,2013-05-24 06:46:00,
2013-05-24 01:47:00,49.0,43.1,30.49,SSE,157,0.0,0.0,80,0.00,CLR,,0.00,WeatherDisplay:10.37,2013-05-24 06:47:00,
2013-05-24 01:48:00,49.0,43.1,30.49,SSE,157,0.0,0.0,80,0.00,CLR,,0.00,WeatherDisplay:10.37,2013-05-24 06:48:00,
2013-05-24 01:51:00,49.0,43.1,30.49,SSE,157,0.0,0.0,80,0.00,CLR,,0.00,WeatherDisplay:10.37,2013-05-24 06:51:00,
2013-05-24 01:52:00,49.0,43.1,30.49,SSE,157,0.0,0.0,80,0.00,CLR,,0.00,WeatherDisplay:10.37,2013-05-24 06:52:00,
2013-05-24 01:53:00,49.0,43.1,30.49,ENE,67,0.0,2.0,80,0.00,CLR,,0.00,WeatherDisplay:10.37,2013-05-24 06:53:00,
2013-05-24 01:57:00,49.0,43.1,30.49,ENE,67,0.0,0.0,80,0.00,CLR,,0.00,WeatherDisplay:10.37,2013-05-24 06:57:00,
2013-05-24 01:58:00,49.0,43.1,30.49,ENE,67,0.0,0.0,80,0.00,CLR,,0.00,WeatherDisplay:10.37,2013-05-24 06:58:00,
2013-05-24 02:02:00,49.0,43.4,30.49,SSE,157,0.0,0.0,81,0.00,CLR,,0.00,WeatherDisplay:10.37,2013-05-24 07:02:00,
2013-05-24 02:03:00,49.0,43.4,30.49,SSE,157,0.0,0.0,81,0.00,CLR,,0.00,WeatherDisplay:10.37,2013-05-24 07:03:00,
2013-05-24 02:04:00,49.0,43.4,30.49,SSE,157,0.0,0.0,81,0.00,CLR,,0.00,WeatherDisplay:10.37,2013-05-24 07:04:00,
2013-05-24 02:08:00,49.0,43.4,30.49,East,90,0.0,0.0,81,0.00,CLR,,0.00,WeatherDisplay:10.37,2013-05-24 07:08:00,
2013-05-24 02:09:00,49.0,43.4,30.49,East,90,0.0,0.0,81,0.00,CLR,,0.00,WeatherDisplay:10.37,2013-05-24 07:09:00,
2013-05-24 02:13:00,49.0,43.7,30.49,East,90,0.0,0.0,82,0.00,CLR,,0.00,WeatherDisplay:10.37,2013-05-24 07:13:00,
2013-05-24 02:14:00,49.0,43.4,30.49,East,90,0.0,0.0,81,0.00,CLR,,0.00,WeatherDisplay:10.37,2013-05-24 07:14:00,
2013-05-24 02:18:00,48.0,42.4,30.50,East,90,0.0,0.0,81,0.00,CLR,,0.00,WeatherDisplay:10.37,2013-05-24 07:18:00,
2013-05-24 02:19:00,48.0,42.4,30.50,East,90,0.0,0.0,81,0.00,CLR,,0.00,WeatherDisplay:10.37,2013-05-24 07:19:00,
2013-05-24 02:20:00,48.0,42.4,30.50,East,90,0.0,0.0,81,0.00,CLR,,0.00,WeatherDisplay:10.37,2013-05-24 07:20:00,
2013-05-24 02:23:00,48.0,42.8,30.50,East,90,0.0,0.0,82,0.00,CLR,,0.00,WeatherDisplay:10.37,2013-05-24 07:23:00,
2013-05-24 02:24:00,48.0,42.8,30.50,East,90,0.0,0.0,82,0.00,CLR,,0.00,WeatherDisplay:10.37,2013-05-24 07:24:00,
2013-05-24 02:25:00,48.0,42.8,30.50,East,90,0.0,0.0,82,0.00,CLR,,0.00,WeatherDisplay:10.37,2013-05-24 07:25:00,
2013-05-24 02:28:00,48.0,42.8,30.50,East,90,0.0,0.0,82,0.00,CLR,,0.00,WeatherDisplay:10.37,2013-05-24 07:28:00,
2013-05-24 02:29:00,48.0,42.8,30.50,East,90,0.0,0.0,82,0.00,CLR,,0.00,WeatherDisplay:10.37,2013-05-24 07:29:00,
2013-05-24 02:30:00,48.0,42.8,30.50,East,90,0.0,0.0,82,0.00,CLR,,0.00,WeatherDisplay:10.37,2013-05-24 07:30:00,
2013-05-24 02:33:00,48.0,43.1,30.50,NE,45,0.0,0.0,83,0.00,CLR,,0.00,WeatherDisplay:10.37,2013-05-24 07:33:00,
2013-05-24 02:34:00,48.0,43.1,30.50,NE,45,0.0,0.0,83,0.00,CLR,,0.00,WeatherDisplay:10.37,2013-05-24 07:34:00,
2013-05-24 02:35:00,48.0,42.8,30.49,NE,45,0.0,0.0,82,0.00,CLR,,0.00,WeatherDisplay:10.37,2013-05-24 07:35:00,
2013-05-24 02:38:00,48.0,43.1,30.49,East,90,0.0,0.0,83,0.00,CLR,,0.00,WeatherDisplay:10.37,2013-05-24 07:38:00,
2013-05-24 02:40:00,48.0,43.1,30.49,East,90,0.0,1.1,83,0.00,CLR,,0.00,WeatherDisplay:10.37,2013-05-24 07:40:00,
2013-05-24 02:44:00,48.0,43.1,30.49,East,90,0.0,0.0,83,0.00,CLR,,0.00,WeatherDisplay:10.37,2013-05-24 07:44:00,
2013-05-24 02:45:00,48.0,43.1,30.49,East,90,0.0,0.0,83,0.00,CLR,,0.00,WeatherDisplay:10.37,2013-05-24 07:45:00,
2013-05-24 02:46:00,48.0,43.1,30.49,East,90,0.0,0.0,83,0.00,CLR,,0.00,WeatherDisplay:10.37,2013-05-24 07:46:00,
2013-05-24 02:49:00,47.0,42.1,30.49,East,90,0.0,0.0,83,0.00,CLR,,0.00,WeatherDisplay:10.37,2013-05-24 07:49:00,
2013-05-24 02:50:00,47.0,41.8,30.49,East,90,0.0,0.0,82,0.00,CLR,,0.00,WeatherDisplay:10.37,2013-05-24 07:50:00,
2013-05-24 02:51:00,47.0,42.1,30.49,East,90,0.0,0.0,83,0.00,CLR,,0.00,WeatherDisplay:10.37,2013-05-24 07:51:00,
2013-05-24 02:54:00,47.0,42.4,30.49,SSW,202,0.0,0.0,84,0.00,CLR,,0.00,WeatherDisplay:10.37,2013-05-24 07:54:00,
2013-05-24 02:55:00,47.0,42.4,30.50,SSW,202,0.0,0.0,84,0.00,CLR,,0.00,WeatherDisplay:10.37,2013-05-24 07:55:00,
2013-05-24 02:56:00,47.0,42.4,30.50,SSW,202,0.0,0.0,84,0.00,CLR,,0.00,WeatherDisplay:10.37,2013-05-24 07:56:00,
2013-05-24 02:59:00,47.0,42.4,30.50,ENE,67,2.3,4.6,84,0.00,CLR,,0.00,WeatherDisplay:10.37,2013-05-24 07:59:00,
2013-05-24 03:00:00,47.0,42.7,30.50,ENE,67,0.0,4.6,85,0.00,CLR,,0.00,WeatherDisplay:10.37,2013-05-24 08:00:00,
2013-05-24 03:01:00,47.0,42.7,30.50,ENE,67,0.0,4.6,85,0.00,CLR,,0.00,WeatherDisplay:10.37,2013-05-24 08:01:00,
2013-05-24 03:05:00,47.0,42.7,30.50,East,90,1.0,3.5,85,0.00,CLR,,0.00,WeatherDisplay:10.37,2013-05-24 08:05:00,
2013-05-24 03:06:00,47.0,42.7,30.50,ENE,67,1.7,3.5,85,0.00,CLR,,0.00,WeatherDisplay:10.37,2013-05-24 08:06:00,
2013-05-24 03:07:00,48.0,44.3,30.50,ENE,67,0.1,6.9,87,0.00,CLR,,0.00,WeatherDisplay:10.37,2013-05-24 08:07:00,
2013-05-24 03:10:00,48.0,43.7,30.50,East,90,1.9,3.5,85,0.00,CLR,,0.00,WeatherDisplay:10.37,2013-05-24 08:10:00,
2013-05-24 03:11:00,49.0,44.7,30.50,ESE,112,2.3,4.0,85,0.00,CLR,,0.00,WeatherDisplay:10.37,2013-05-24 08:11:00,
2013-05-24 03:12:00,49.0,44.4,30.50,East,90,1.7,4.6,84,0.00,CLR,,0.00,WeatherDisplay:10.37,2013-05-24 08:12:00,
2013-05-24 03:15:00,49.0,43.7,30.49,ENE,67,3.2,5.8,82,0.00,CLR,,0.00,WeatherDisplay:10.37,2013-05-24 08:15:00,
2013-05-24 03:16:00,49.0,43.7,30.49,ENE,67,3.5,4.6,82,0.00,CLR,,0.00,WeatherDisplay:10.37,2013-05-24 08:16:00,
2013-05-24 03:17:00,50.0,44.4,30.49,East,90,3.9,5.0,81,0.00,CLR,,0.00,WeatherDisplay:10.37,2013-05-24 08:17:00,
2013-05-24 03:20:00,50.0,44.4,30.49,SSE,157,1.4,3.5,81,0.00,CLR,,0.00,WeatherDisplay:10.37,2013-05-24 08:20:00,
2013-05-24 03:21:00,50.0,44.4,30.49,SSE,157,0.0,4.6,81,0.00,CLR,,0.00,WeatherDisplay:10.37,2013-05-24 08:21:00,
2013-05-24 03:22:00,50.0,44.1,30.49,SSE,157,0.0,0.0,80,0.00,CLR,,0.00,WeatherDisplay:10.37,2013-05-24 08:22:00,
2013-05-24 03:25:00,50.0,44.1,30.49,SSE,157,0.7,0.0,80,0.00,CLR,,0.00,WeatherDisplay:10.37,2013-05-24 08:25:00,
2013-05-24 03:26:00,49.0,43.1,30.49,SSE,157,0.0,0.0,80,0.00,CLR,,0.00,WeatherDisplay:10.37,2013-05-24 08:26:00,
2013-05-24 03:27:00,49.0,43.1,30.49,SSE,157,0.0,0.0,80,0.00,CLR,,0.00,WeatherDisplay:10.37,2013-05-24 08:27:00,
2013-05-24 03:30:00,49.0,43.1,30.49,ESE,112,0.0,3.5,80,0.00,CLR,,0.00,WeatherDisplay:10.37,2013-05-24 08:30:00,
2013-05-24 03:31:00,49.0,43.1,30.49,ESE,112,0.0,0.0,80,0.00,CLR,,0.00,WeatherDisplay:10.37,2013-05-24 08:31:00,
2013-05-24 03:32:00,49.0,43.1,30.49,ESE,112,0.0,0.0,80,0.00,CLR,,0.00,WeatherDisplay:10.37,2013-05-24 08:32:00,
2013-05-24 03:36:00,49.0,43.1,30.49,SW,225,0.0,0.0,80,0.00,CLR,,0.00,WeatherDisplay:10.37,2013-05-24 08:36:00,
2013-05-24 03:37:00,49.0,43.1,30.49,NNE,22,0.7,5.0,80,0.00,CLR,,0.00,WeatherDisplay:10.37,2013-05-24 08:37:00,
2013-05-24 03:38:00,49.0,43.4,30.49,SSE,157,0.7,4.6,81,0.00,CLR,,0.00,WeatherDisplay:10.37,2013-05-24 08:38:00,
2013-05-24 03:41:00,49.0,43.4,30.49,SSE,157,0.0,0.0,81,0.00,CLR,,0.00,WeatherDisplay:10.37,2013-05-24 08:41:00,
2013-05-24 03:42:00,49.0,43.4,30.49,SSE,157,0.0,0.0,81,0.00,CLR,,0.00,WeatherDisplay:10.37,2013-05-24 08:42:00,
2013-05-24 03:43:00,49.0,43.4,30.49,SSE,157,0.0,0.0,81,0.00,CLR,,0.00,WeatherDisplay:10.37,2013-05-24 08:43:00,
2013-05-24 03:46:00,48.0,42.4,30.49,SSE,157,0.0,0.0,81,0.00,CLR,,0.00,WeatherDisplay:10.37,2013-05-24 08:46:00,
2013-05-24 03:47:00,48.0,42.8,30.49,SSW,202,0.0,0.0,82,0.00,CLR,,0.00,WeatherDisplay:10.37,2013-05-24 08:47:00,
2013-05-24 03:48:00,48.0,43.1,30.49,SSW,202,1.2,4.0,83,0.00,CLR,,0.00,WeatherDisplay:10.37,2013-05-24 08:48:00,
2013-05-24 03:51:00,48.0,43.1,30.49,SSE,157,1.5,2.0,83,0.00,CLR,,0.00,WeatherDisplay:10.37,2013-05-24 08:51:00,
2013-05-24 03:52:00,48.0,43.1,30.49,SSE,157,0.3,3.5,83,0.00,CLR,,0.00,WeatherDisplay:10.37,2013-05-24 08:52:00,
2013-05-24 03:53:00,48.0,43.1,30.49,SSE,157,0.0,0.0,83,0.00,CLR,,0.00,WeatherDisplay:10.37,2013-05-24 08:53:00,
2013-05-24 03:54:00,48.0,43.1,30.49,SSE,157,0.0,0.0,83,0.00,CLR,,0.00,WeatherDisplay:10.37,2013-05-24 08:54:00,
2013-05-24 03:56:00,48.0,43.1,30.49,SSE,157,1.6,3.5,83,0.00,CLR,,0.00,WeatherDisplay:10.37,2013-05-24 08:56:00,
2013-05-24 03:57:00,48.0,43.1,30.49,ESE,112,3.0,7.0,83,0.00,CLR,,0.00,WeatherDisplay:10.37,2013-05-24 08:57:00,
2013-05-24 03:58:00,48.0,43.1,30.49,ESE,112,3.3,6.9,83,0.00,CLR,,0.00,WeatherDisplay:10.37,2013-05-24 08:58:00,
2013-05-24 03:59:00,49.0,44.1,30.49,SE,135,2.6,4.6,83,0.00,CLR,,0.00,WeatherDisplay:10.37,2013-05-24 08:59:00,
2013-05-24 04:02:00,49.0,43.7,30.49,ESE,112,0.6,3.5,82,0.00,CLR,,0.00,WeatherDisplay:10.37,2013-05-24 09:02:00,
2013-05-24 04:03:00,49.0,43.4,30.49,SSE,157,0.8,3.5,81,0.00,CLR,,0.00,WeatherDisplay:10.37,2013-05-24 09:03:00,
2013-05-24 04:04:00,49.0,43.4,30.49,ESE,112,1.7,5.0,81,0.00,CLR,,0.00,WeatherDisplay:10.37,2013-05-24 09:04:00,
2013-05-24 04:07:00,50.0,44.1,30.50,ESE,112,0.8,3.5,80,0.00,CLR,,0.00,WeatherDisplay:10.37,2013-05-24 09:07:00,
2013-05-24 04:08:00,50.0,44.1,30.50,ESE,112,1.2,5.0,80,0.00,CLR,,0.00,WeatherDisplay:10.37,2013-05-24 09:08:00,
2013-05-24 04:09:00,50.0,44.1,30.50,ESE,112,1.0,5.8,80,0.00,CLR,,0.00,WeatherDisplay:10.37,2013-05-24 09:09:00,
2013-05-24 04:13:00,50.0,43.7,30.50,East,90,0.5,3.5,79,0.00,CLR,,0.00,WeatherDisplay:10.37,2013-05-24 09:13:00,
2013-05-24 04:15:00,50.0,43.4,30.49,East,90,1.2,3.5,78,0.00,CLR,,0.00,WeatherDisplay:10.37,2013-05-24 09:15:00,
2013-05-24 04:18:00,49.0,42.8,30.49,ESE,112,0.1,0.0,79,0.00,CLR,,0.00,WeatherDisplay:10.37,2013-05-24 09:18:00,
2013-05-24 04:20:00,49.0,42.8,30.49,ESE,112,0.0,1.1,79,0.00,CLR,,0.00,WeatherDisplay:10.37,2013-05-24 09:20:00,
2013-05-24 04:23:00,49.0,42.8,30.49,East,90,0.8,3.5,79,0.00,CLR,,0.00,WeatherDisplay:10.37,2013-05-24 09:23:00,
2013-05-24 04:24:00,49.0,43.1,30.49,ESE,112,1.0,3.5,80,0.00,CLR,,0.00,WeatherDisplay:10.37,2013-05-24 09:24:00,
2013-05-24 04:25:00,49.0,42.8,30.49,ESE,112,2.6,7.0,79,0.00,CLR,,0.00,WeatherDisplay:10.37,2013-05-24 09:25:00,
2013-05-24 04:28:00,49.0,43.1,30.49,ESE,112,4.3,5.8,80,0.00,CLR,,0.00,WeatherDisplay:10.37,2013-05-24 09:28:00,
2013-05-24 04:29:00,50.0,44.1,30.49,ESE,112,3.6,5.8,80,0.00,CLR,,0.00,WeatherDisplay:10.37,2013-05-24 09:29:00,
2013-05-24 04:30:00,50.0,43.7,30.49,East,90,5.8,8.1,79,0.00,CLR,,0.00,WeatherDisplay:10.37,2013-05-24 09:30:00,
2013-05-24 04:33:00,50.0,43.4,30.49,ENE,67,5.3,6.9,78,0.00,CLR,,0.00,WeatherDisplay:10.37,2013-05-24 09:33:00,
2013-05-24 04:34:00,50.0,43.4,30.49,ENE,67,4.3,6.9,78,0.00,CLR,,0.00,WeatherDisplay:10.37,2013-05-24 09:34:00,
2013-05-24 04:36:00,50.0,43.1,30.49,ESE,112,2.5,6.9,77,0.00,CLR,,0.00,WeatherDisplay:10.37,2013-05-24 09:36:00,
2013-05-24 04:38:00,50.0,43.1,30.49,SSE,157,3.5,6.9,77,0.00,CLR,,0.00,WeatherDisplay:10.37,2013-05-24 09:38:00,
2013-05-24 04:39:00,50.0,43.1,30.49,East,90,3.3,7.0,77,0.00,CLR,,0.00,WeatherDisplay:10.37,2013-05-24 09:39:00,
2013-05-24 04:41:00,50.0,43.1,30.49,SE,135,4.7,5.0,77,0.00,CLR,,0.00,WeatherDisplay:10.37,2013-05-24 09:41:00,
2013-05-24 04:43:00,50.0,43.1,30.49,SE,135,1.6,4.6,77,0.00,CLR,,0.00,WeatherDisplay:10.37,2013-05-24 09:43:00,
2013-05-24 04:44:00,50.0,43.1,30.49,SE,135,0.2,4.6,77,0.00,CLR,,0.00,WeatherDisplay:10.37,2013-05-24 09:44:00,
2013-05-24 04:45:00,50.0,43.1,30.49,ESE,112,2.4,2.4,77,0.00,CLR,,0.00,WeatherDisplay:10.37,2013-05-24 09:45:00,
2013-05-24 04:46:00,50.0,43.1,30.49,ESE,112,4.6,5.8,77,0.00,CLR,,0.00,WeatherDisplay:10.37,2013-05-24 09:46:00,
2013-05-24 04:49:00,50.0,43.1,30.49,ESE,112,0.3,3.5,77,0.00,CLR,,0.00,WeatherDisplay:10.37,2013-05-24 09:49:00,
2013-05-24 04:50:00,50.0,43.1,30.49,ESE,112,0.0,0.0,77,0.00,CLR,,0.00,WeatherDisplay:10.37,2013-05-24 09:50:00,
2013-05-24 04:51:00,50.0,43.1,30.49,ESE,112,0.0,0.0,77,0.00,CLR,,0.00,WeatherDisplay:10.37,2013-05-24 09:51:00,
2013-05-24 04:54:00,50.0,43.4,30.49,SSE,157,3.5,5.8,78,0.00,CLR,,0.00,WeatherDisplay:10.37,2013-05-24 09:54:00,
2013-05-24 04:55:00,50.0,43.4,30.49,ESE,112,1.4,3.5,78,0.00,CLR,,0.00,WeatherDisplay:10.37,2013-05-24 09:55:00,
2013-05-24 04:56:00,50.0,43.4,30.49,SSE,157,0.6,2.3,78,0.00,CLR,,0.00,WeatherDisplay:10.37,2013-05-24 09:56:00,
2013-05-24 04:59:00,49.0,42.4,30.49,East,90,0.2,4.0,78,0.00,CLR,,0.00,WeatherDisplay:10.37,2013-05-24 09:59:00,
2013-05-24 05:00:00,49.0,43.1,30.49,SE,135,3.6,5.0,80,0.00,CLR,,0.00,WeatherDisplay:10.37,2013-05-24 10:00:00,
2013-05-24 05:01:00,49.0,43.1,30.49,ESE,112,3.6,6.9,80,0.00,CLR,,0.00,WeatherDisplay:10.37,2013-05-24 10:01:00,
2013-05-24 05:04:00,49.0,42.8,30.49,South,180,0.1,1.1,79,0.00,CLR,,0.00,WeatherDisplay:10.37,2013-05-24 10:04:00,
2013-05-24 05:05:00,49.0,42.4,30.50,South,180,0.0,1.1,78,0.00,CLR,,0.00,WeatherDisplay:10.37,2013-05-24 10:05:00,
2013-05-24 05:06:00,49.0,42.4,30.50,SSE,157,0.0,0.0,78,0.00,CLR,,0.00,WeatherDisplay:10.37,2013-05-24 10:06:00,
2013-05-24 05:07:00,49.0,42.8,30.50,SSE,157,0.0,0.0,79,0.00,CLR,,0.00,WeatherDisplay:10.37,2013-05-24 10:07:00,
2013-05-24 05:09:00,49.0,42.8,30.50,SE,135,1.5,3.5,79,0.00,CLR,,0.00,WeatherDisplay:10.37,2013-05-24 10:09:00,
2013-05-24 05:10:00,49.0,42.8,30.50,SE,135,0.8,3.5,79,0.00,CLR,,0.00,WeatherDisplay:10.37,2013-05-24 10:10:00,
2013-05-24 05:11:00,49.0,42.8,30.50,SSE,157,0.5,2.3,79,0.00,CLR,,0.00,WeatherDisplay:10.37,2013-05-24 10:11:00,
2013-05-24 05:12:00,49.0,43.1,30.50,ESE,112,0.5,2.3,80,0.00,CLR,,0.00,WeatherDisplay:10.37,2013-05-24 10:12:00,
2013-05-24 05:14:00,49.0,43.1,30.50,ESE,112,0.1,2.3,80,0.00,CLR,,0.00,WeatherDisplay:10.37,2013-05-24 10:14:00,
2013-05-24 05:15:00,49.0,43.1,30.50,SSE,157,0.1,1.1,80,0.00,CLR,,0.00,WeatherDisplay:10.37,2013-05-24 10:15:00,
2013-05-24 05:16:00,48.0,42.1,30.50,ESE,112,1.1,6.0,80,0.00,CLR,,0.00,WeatherDisplay:10.37,2013-05-24 10:16:00,
2013-05-24 05:17:00,48.0,42.8,30.50,ESE,112,3.3,3.3,82,0.00,CLR,,0.00,WeatherDisplay:10.37,2013-05-24 10:17:00,
2013-05-24 05:20:00,49.0,43.4,30.50,ESE,112,2.9,5.0,81,0.00,CLR,,0.00,WeatherDisplay:10.37,2013-05-24 10:20:00,
2013-05-24 05:21:00,49.0,43.4,30.50,ESE,112,1.6,4.6,81,0.00,CLR,,0.00,WeatherDisplay:10.37,2013-05-24 10:21:00,
2013-05-24 05:22:00,49.0,43.4,30.50,South,180,1.4,3.5,81,0.00,CLR,,0.00,WeatherDisplay:10.37,2013-05-24 10:22:00,
2013-05-24 05:25:00,49.0,43.1,30.50,ESE,112,0.2,2.0,80,0.00,CLR,,0.00,WeatherDisplay:10.37,2013-05-24 10:25:00,
2013-05-24 05:26:00,49.0,43.4,30.50,ESE,112,1.3,2.3,81,0.00,CLR,,0.00,WeatherDisplay:10.37,2013-05-24 10:26:00,
2013-05-24 05:27:00,49.0,43.7,30.50,East,90,2.9,5.0,82,0.00,CLR,,0.00,WeatherDisplay:10.37,2013-05-24 10:27:00,
2013-05-24 05:30:00,49.0,43.4,30.50,South,180,0.2,3.5,81,0.00,CLR,,0.00,WeatherDisplay:10.37,2013-05-24 10:30:00,
2013-05-24 05:31:00,49.0,43.4,30.50,SSW,202,0.7,3.5,81,0.00,CLR,,0.00,WeatherDisplay:10.37,2013-05-24 10:31:00,
2013-05-24 05:32:00,49.0,43.7,30.50,South,180,3.0,4.6,82,0.00,CLR,,0.00,WeatherDisplay:10.37,2013-05-24 10:32:00,
2013-05-24 05:35:00,48.0,42.8,30.51,South,180,0.0,0.0,82,0.00,CLR,,0.00,WeatherDisplay:10.37,2013-05-24 10:35:00,
2013-05-24 05:37:00,48.0,42.8,30.51,South,180,0.0,0.0,82,0.00,CLR,,0.00,WeatherDisplay:10.37,2013-05-24 10:37:00,
2013-05-24 05:41:00,48.0,43.1,30.51,South,180,0.0,3.5,83,0.00,CLR,,0.00,WeatherDisplay:10.37,2013-05-24 10:41:00,
2013-05-24 05:42:00,48.0,43.1,30.51,South,180,0.0,1.1,83,0.00,CLR,,0.00,WeatherDisplay:10.37,2013-05-24 10:42:00,
2013-05-24 05:46:00,48.0,43.1,30.51,SSE,157,0.2,3.5,83,0.00,CLR,,0.00,WeatherDisplay:10.37,2013-05-24 10:46:00,
2013-05-24 05:47:00,48.0,43.1,30.51,SSE,157,0.0,0.0,83,0.00,CLR,,0.00,WeatherDisplay:10.37,2013-05-24 10:47:00,
2013-05-24 05:48:00,48.0,43.1,30.51,SSE,157,0.0,0.0,83,0.00,CLR,,0.00,WeatherDisplay:10.37,2013-05-24 10:48:00,
2013-05-24 05:51:00,48.0,43.1,30.51,SSE,157,0.0,0.0,83,0.00,CLR,,0.00,WeatherDisplay:10.37,2013-05-24 10:51:00,
2013-05-24 05:52:00,48.0,42.8,30.51,SE,135,1.1,4.0,82,0.00,CLR,,0.00,WeatherDisplay:10.37,2013-05-24 10:52:00,
2013-05-24 05:53:00,48.0,43.1,30.51,SE,135,1.6,3.5,83,0.00,CLR,,0.00,WeatherDisplay:10.37,2013-05-24 10:53:00,
2013-05-24 05:56:00,48.0,43.1,30.52,ESE,112,3.0,4.6,83,0.00,CLR,,0.00,WeatherDisplay:10.37,2013-05-24 10:56:00,
2013-05-24 05:57:00,48.0,43.1,30.52,SE,135,0.3,3.5,83,0.00,CLR,,0.00,WeatherDisplay:10.37,2013-05-24 10:57:00,
2013-05-24 05:58:00,48.0,43.1,30.52,SE,135,0.0,3.5,83,0.00,CLR,,0.00,WeatherDisplay:10.37,2013-05-24 10:58:00,
2013-05-24 06:02:00,48.0,43.1,30.52,SE,135,0.0,0.0,83,0.00,CLR,,0.00,WeatherDisplay:10.37,2013-05-24 11:02:00,
2013-05-24 06:03:00,48.0,43.1,30.52,SE,135,0.0,0.0,83,0.00,CLR,,0.00,WeatherDisplay:10.37,2013-05-24 11:03:00,
2013-05-24 06:07:00,48.0,43.1,30.52,ESE,112,0.7,4.6,83,0.00,CLR,,0.00,WeatherDisplay:10.37,2013-05-24 11:07:00,
2013-05-24 06:08:00,48.0,43.1,30.52,ESE,112,1.1,3.5,83,0.00,CLR,,0.00,WeatherDisplay:10.37,2013-05-24 11:08:00,
2013-05-24 06:09:00,48.0,43.1,30.52,ESE,112,0.5,3.5,83,0.00,CLR,,0.00,WeatherDisplay:10.37,2013-05-24 11:09:00,
2013-05-24 06:12:00,49.0,44.1,30.52,SE,135,4.4,4.6,83,0.00,CLR,,0.00,WeatherDisplay:10.37,2013-05-24 11:12:00,
2013-05-24 06:13:00,49.0,44.1,30.52,SE,135,0.2,8.1,83,0.00,CLR,,0.00,WeatherDisplay:10.37,2013-05-24 11:13:00,
2013-05-24 06:14:00,49.0,44.1,30.52,SE,135,0.0,2.3,83,0.00,CLR,,0.00,WeatherDisplay:10.37,2013-05-24 11:14:00,
2013-05-24 06:17:00,49.0,43.7,30.52,ESE,112,0.0,0.0,82,0.00,CLR,,0.00,WeatherDisplay:10.37,2013-05-24 11:17:00,
2013-05-24 06:18:00,49.0,43.7,30.52,ENE,67,1.1,4.6,82,0.00,CLR,,0.00,WeatherDisplay:10.37,2013-05-24 11:18:00,
2013-05-24 06:19:00,49.0,43.7,30.52,ENE,67,1.1,4.6,82,0.00,CLR,,0.00,WeatherDisplay:10.37,2013-05-24 11:19:00,
2013-05-24 06:22:00,49.0,43.7,30.52,SE,135,1.8,4.6,82,0.00,CLR,,0.00,WeatherDisplay:10.37,2013-05-24 11:22:00,
2013-05-24 06:23:00,49.0,43.7,30.52,SE,135,1.0,4.6,82,0.00,CLR,,0.00,WeatherDisplay:10.37,2013-05-24 11:23:00,
2013-05-24 06:24:00,49.0,43.7,30.52,ESE,112,0.2,4.6,82,0.00,CLR,,0.00,WeatherDisplay:10.37,2013-05-24 11:24:00,
2013-05-24 06:27:00,49.0,43.7,30.51,ESE,112,1.9,3.5,82,0.00,CLR,,0.00,WeatherDisplay:10.37,2013-05-24 11:27:00,
2013-05-24 06:28:00,49.0,43.7,30.51,SE,135,0.6,3.5,82,0.00,CLR,,0.00,WeatherDisplay:10.37,2013-05-24 11:28:00,
2013-05-24 06:29:00,49.0,43.7,30.51,SSE,157,0.0,3.5,82,0.00,CLR,,0.00,WeatherDisplay:10.37,2013-05-24 11:29:00,
2013-05-24 06:33:00,49.0,43.7,30.51,SSE,157,1.4,3.5,82,0.00,CLR,,0.00,WeatherDisplay:10.37,2013-05-24 11:33:00,
2013-05-24 06:34:00,49.0,43.7,30.51,SSE,157,1.5,4.6,82,0.00,CLR,,0.00,WeatherDisplay:10.37,2013-05-24 11:34:00,
2013-05-24 06:35:00,50.0,44.4,30.51,South,180,0.6,5.0,81,0.00,CLR,,0.00,WeatherDisplay:10.37,2013-05-24 11:35:00,
2013-05-24 06:38:00,50.0,44.1,30.51,SSE,157,3.6,6.9,80,0.00,CLR,,0.00,WeatherDisplay:10.37,2013-05-24 11:38:00,
2013-05-24 06:39:00,50.0,44.1,30.51,SSE,157,2.8,6.9,80,0.00,CLR,,0.00,WeatherDisplay:10.37,2013-05-24 11:39:00,
2013-05-24 06:40:00,50.0,44.1,30.51,ESE,112,0.9,3.5,80,0.00,CLR,,0.00,WeatherDisplay:10.37,2013-05-24 11:40:00,
2013-05-24 06:43:00,50.0,44.1,30.51,South,180,0.6,3.5,80,0.00,CLR,,0.00,WeatherDisplay:10.37,2013-05-24 11:43:00,
2013-05-24 06:44:00,50.0,44.1,30.51,WSW,247,0.2,3.5,80,0.00,CLR,,0.00,WeatherDisplay:10.37,2013-05-24 11:44:00,
2013-05-24 06:45:00,50.0,44.1,30.52,South,180,0.0,0.0,80,0.00,CLR,,0.00,WeatherDisplay:10.37,2013-05-24 11:45:00,
2013-05-24 06:49:00,50.0,44.1,30.52,ESE,112,0.0,2.3,80,0.00,CLR,,0.00,WeatherDisplay:10.37,2013-05-24 11:49:00,
2013-05-24 06:50:00,50.0,44.1,30.52,SSE,157,0.3,0.0,80,0.00,CLR,,0.00,WeatherDisplay:10.37,2013-05-24 11:50:00,
2013-05-24 06:51:00,50.0,44.1,30.52,SSW,202,0.0,3.5,80,0.00,CLR,,0.00,WeatherDisplay:10.37,2013-05-24 11:51:00,
2013-05-24 06:54:00,50.0,44.1,30.52,SSE,157,0.0,3.5,80,0.00,CLR,,0.00,WeatherDisplay:10.37,2013-05-24 11:54:00,
2013-05-24 06:55:00,50.0,44.1,30.52,ESE,112,0.8,3.5,80,0.00,CLR,,0.00,WeatherDisplay:10.37,2013-05-24 11:55:00,
2013-05-24 06:56:00,50.0,44.1,30.52,ESE,112,0.0,1.0,80,0.00,CLR,,0.00,WeatherDisplay:10.37,2013-05-24 11:56:00,
2013-05-24 06:59:00,51.0,45.0,30.52,SE,135,0.1,1.1,80,0.00,CLR,,0.00,WeatherDisplay:10.37,2013-05-24 11:59:00,
2013-05-24 07:00:00,51.0,45.0,30.52,ENE,67,0.6,1.1,80,0.00,CLR,,0.00,WeatherDisplay:10.37,2013-05-24 12:00:00,
2013-05-24 07:01:00,51.0,45.0,30.52,ESE,112,0.8,3.5,80,0.00,CLR,,0.00,WeatherDisplay:10.37,2013-05-24 12:01:00,
2013-05-24 07:04:00,52.0,45.0,30.52,SE,135,4.4,5.8,77,0.00,CLR,,0.00,WeatherDisplay:10.37,2013-05-24 12:04:00,
2013-05-24 07:05:00,52.0,45.0,30.50,SE,135,2.4,5.8,77,0.00,CLR,,0.00,WeatherDisplay:10.37,2013-05-24 12:05:00,
2013-05-24 07:07:00,52.0,44.7,30.50,SE,135,2.3,5.8,76,0.00,CLR,,0.00,WeatherDisplay:10.37,2013-05-24 12:07:00,
2013-05-24 07:09:00,53.0,45.3,30.50,SSE,157,5.8,10.4,75,0.00,CLR,,0.00,WeatherDisplay:10.37,2013-05-24 12:09:00,
2013-05-24 07:10:00,53.0,45.3,30.50,SSW,202,4.0,10.4,75,0.00,CLR,,0.00,WeatherDisplay:10.37,2013-05-24 12:10:00,
2013-05-24 07:11:00,53.0,44.6,30.50,ESE,112,4.6,5.8,73,0.00,CLR,,0.00,WeatherDisplay:10.37,2013-05-24 12:11:00,
2013-05-24 07:13:00,53.0,44.2,30.50,SE,135,4.1,5.8,72,0.00,CLR,,0.00,WeatherDisplay:10.37,2013-05-24 12:13:00,
2013-05-24 07:14:00,54.0,44.8,30.49,ESE,112,5.6,10.4,71,0.00,CLR,,0.00,WeatherDisplay:10.37,2013-05-24 12:14:00,
2013-05-24 07:15:00,54.0,44.8,30.49,SSE,157,4.1,10.4,71,0.00,CLR,,0.00,WeatherDisplay:10.37,2013-05-24 12:15:00,
2013-05-24 07:17:00,54.0,45.2,30.49,ESE,112,3.5,8.1,72,0.00,CLR,,0.00,WeatherDisplay:10.37,2013-05-24 12:17:00,
2013-05-24 07:18:00,54.0,44.8,30.49,ESE,112,3.7,5.8,71,0.00,CLR,,0.00,WeatherDisplay:10.37,2013-05-24 12:18:00,
2013-05-24 07:19:00,54.0,44.8,30.49,ESE,112,2.2,5.8,71,0.00,CLR,,0.00,WeatherDisplay:10.37,2013-05-24 12:19:00,
2013-05-24 07:20:00,54.0,44.8,30.49,SSE,157,1.3,5.8,71,0.00,CLR,,0.00,WeatherDisplay:10.37,2013-05-24 12:20:00,
2013-05-24 07:22:00,54.0,44.8,30.49,SSE,157,4.9,8.1,71,0.00,CLR,,0.00,WeatherDisplay:10.37,2013-05-24 12:22:00,
2013-05-24 07:23:00,55.0,45.8,30.49,SE,135,4.0,5.8,71,0.00,CLR,,0.00,WeatherDisplay:10.37,2013-05-24 12:23:00,
2013-05-24 07:24:00,55.0,44.6,30.47,East,90,0.7,5.8,68,0.00,CLR,,0.00,WeatherDisplay:10.37,2013-05-24 12:24:00,
2013-05-24 07:25:00,55.0,44.6,30.47,SSE,157,4.0,10.4,68,0.00,CLR,,0.00,WeatherDisplay:10.37,2013-05-24 12:25:00,
2013-05-24 07:26:00,55.0,44.6,30.47,SSW,202,5.9,10.4,68,0.00,CLR,,0.00,WeatherDisplay:10.37,2013-05-24 12:26:00,
2013-05-24 07:27:00,55.0,44.6,30.47,East,90,4.8,10.4,68,0.00,CLR,,0.00,WeatherDisplay:10.37,2013-05-24 12:27:00,
2013-05-24 07:28:00,55.0,44.2,30.47,SE,135,7.1,14.0,67,0.00,CLR,,0.00,WeatherDisplay:10.37,2013-05-24 12:28:00,
2013-05-24 07:30:00,55.0,44.6,30.47,SE,135,4.3,13.8,68,0.00,CLR,,0.00,WeatherDisplay:10.37,2013-05-24 12:30:00,
2013-05-24 07:31:00,55.0,44.6,30.47,SSW,202,2.5,4.6,68,0.00,CLR,,0.00,WeatherDisplay:10.37,2013-05-24 12:31:00,
2013-05-24 07:32:00,55.0,44.6,30.47,SSE,157,4.5,5.8,68,0.00,CLR,,0.00,WeatherDisplay:10.37,2013-05-24 12:32:00,
2013-05-24 07:34:00,56.0,45.6,30.47,SSE,157,4.7,10.0,68,0.00,CLR,,0.00,WeatherDisplay:10.37,2013-05-24 12:34:00,
2013-05-24 07:35:00,56.0,44.8,30.46,ESE,112,6.9,10.4,66,0.00,CLR,,0.00,WeatherDisplay:10.37,2013-05-24 12:35:00,
2013-05-24 07:36:00,56.0,44.8,30.46,ESE,112,4.0,6.9,66,0.00,CLR,,0.00,WeatherDisplay:10.37,2013-05-24 12:36:00,
2013-05-24 07:37:00,56.0,45.6,30.46,SE,135,0.5,3.5,68,0.00,CLR,,0.00,WeatherDisplay:10.37,2013-05-24 12:37:00,
2013-05-24 07:39:00,56.0,45.6,30.46,SE,135,0.0,1.1,68,0.00,CLR,,0.00,WeatherDisplay:10.37,2013-05-24 12:39:00,
2013-05-24 07:40:00,57.0,46.5,30.46,ESE,112,2.3,5.8,68,0.00,CLR,,0.00,WeatherDisplay:10.37,2013-05-24 12:40:00,
2013-05-24 07:41:00,57.0,46.5,30.46,SE,135,3.1,5.8,68,0.00,CLR,,0.00,WeatherDisplay:10.37,2013-05-24 12:41:00,
2013-05-24 07:43:00,57.0,46.1,30.46,WSW,247,3.4,5.8,67,0.00,CLR,,0.00,WeatherDisplay:10.37,2013-05-24 12:43:00,
2013-05-24 07:44:00,57.0,45.7,30.46,East,90,3.4,4.6,66,0.00,CLR,,0.00,WeatherDisplay:10.37,2013-05-24 12:44:00,
2013-05-24 07:46:00,57.0,44.5,30.45,ESE,112,6.4,10.4,63,0.00,CLR,,0.00,WeatherDisplay:10.37,2013-05-24 12:46:00,
2013-05-24 07:47:00,57.0,44.9,30.45,SE,135,4.3,10.4,64,0.00,CLR,,0.00,WeatherDisplay:10.37,2013-05-24 12:47:00,
2013-05-24 07:48:00,57.0,44.9,30.45,South,180,4.6,5.8,64,0.00,CLR,,0.00,WeatherDisplay:10.37,2013-05-24 12:48:00,
2013-05-24 07:49:00,57.0,44.5,30.45,SE,135,5.8,9.2,63,0.00,CLR,,0.00,WeatherDisplay:10.37,2013-05-24 12:49:00,
2013-05-24 07:51:00,57.0,44.9,30.45,East,90,6.5,10.4,64,0.00,CLR,,0.00,WeatherDisplay:10.37,2013-05-24 12:51:00,
2013-05-24 07:52:00,57.0,44.9,30.45,ESE,112,5.3,10.0,64,0.00,CLR,,0.00,WeatherDisplay:10.37,2013-05-24 12:52:00,
2013-05-24 07:53:00,57.0,44.5,30.45,South,180,8.3,13.8,63,0.00,CLR,,0.00,WeatherDisplay:10.37,2013-05-24 12:53:00,
2013-05-24 07:54:00,56.0,44.0,30.45,ENE,67,5.8,10.4,64,0.00,CLR,,0.00,WeatherDisplay:10.37,2013-05-24 12:54:00,
2013-05-24 07:56:00,56.0,44.8,30.45,SSE,157,5.3,10.4,66,0.00,CLR,,0.00,WeatherDisplay:10.37,2013-05-24 12:56:00,
2013-05-24 07:57:00,56.0,44.4,30.45,East,90,5.2,10.4,65,0.00,CLR,,0.00,WeatherDisplay:10.37,2013-05-24 12:57:00,
2013-05-24 07:59:00,57.0,45.7,30.45,ESE,112,5.9,11.5,66,0.00,CLR,,0.00,WeatherDisplay:10.37,2013-05-24 12:59:00,
2013-05-24 08:00:00,56.0,44.8,30.45,SSE,157,4.0,9.2,66,0.00,CLR,,0.00,WeatherDisplay:10.37,2013-05-24 13:00:00,
2013-05-24 08:02:00,56.0,44.8,30.45,ESE,112,5.2,6.9,66,0.00,CLR,,0.00,WeatherDisplay:10.37,2013-05-24 13:02:00,
2013-05-24 08:04:00,56.0,44.8,30.45,ESE,112,4.4,8.0,66,0.00,CLR,,0.00,WeatherDisplay:10.37,2013-05-24 13:04:00,
2013-05-24 08:05:00,57.0,45.7,30.47,SE,135,5.2,10.4,66,0.00,CLR,,0.00,WeatherDisplay:10.37,2013-05-24 13:05:00,
2013-05-24 08:07:00,56.0,45.6,30.47,ESE,112,5.0,8.1,68,0.00,CLR,,0.00,WeatherDisplay:10.37,2013-05-24 13:07:00,
2013-05-24 08:09:00,57.0,46.1,30.47,ESE,112,4.7,8.1,67,0.00,CLR,,0.00,WeatherDisplay:10.37,2013-05-24 13:09:00,
2013-05-24 08:10:00,57.0,45.7,30.47,ESE,112,4.1,6.9,66,0.00,CLR,,0.00,WeatherDisplay:10.37,2013-05-24 13:10:00,
2013-05-24 08:12:00,57.0,45.7,30.47,South,180,4.3,10.0,66,0.00,CLR,,0.00,WeatherDisplay:10.37,2013-05-24 13:12:00,
2013-05-24 08:14:00,57.0,45.3,30.47,South,180,5.3,12.7,65,0.00,CLR,,0.00,WeatherDisplay:10.37,2013-05-24 13:14:00,
2013-05-24 08:16:00,57.0,45.7,30.46,ESE,112,4.0,6.0,66,0.00,CLR,,0.00,WeatherDisplay:10.37,2013-05-24 13:16:00,
2013-05-24 08:17:00,57.0,45.7,30.46,East,90,5.7,6.9,66,0.00,CLR,,0.00,WeatherDisplay:10.37,2013-05-24 13:17:00,
2013-05-24 08:18:00,57.0,45.7,30.46,ESE,112,6.2,9.2,66,0.00,CLR,,0.00,WeatherDisplay:10.37,2013-05-24 13:18:00,
2013-05-24 08:19:00,57.0,45.7,30.46,East,90,5.7,12.7,66,0.00,CLR,,0.00,WeatherDisplay:10.37,2013-05-24 13:19:00,
2013-05-24 08:21:00,57.0,45.7,30.46,South,180,4.1,5.8,66,0.00,CLR,,0.00,WeatherDisplay:10.37,2013-05-24 13:21:00,
2013-05-24 08:22:00,57.0,45.7,30.46,South,180,4.4,5.8,66,0.00,CLR,,0.00,WeatherDisplay:10.37,2013-05-24 13:22:00,
2013-05-24 08:23:00,57.0,45.7,30.46,East,90,4.2,5.8,66,0.00,CLR,,0.00,WeatherDisplay:10.37,2013-05-24 13:23:00,
2013-05-24 08:24:00,57.0,46.1,30.46,ESE,112,1.7,3.5,67,0.00,CLR,,0.00,WeatherDisplay:10.37,2013-05-24 13:24:00,
2013-05-24 08:26:00,57.0,46.5,30.47,SSE,157,0.8,3.5,68,0.00,CLR,,0.00,WeatherDisplay:10.37,2013-05-24 13:26:00,
2013-05-24 08:27:00,57.0,45.7,30.47,SE,135,5.0,10.4,66,0.00,CLR,,0.00,WeatherDisplay:10.37,2013-05-24 13:27:00,
2013-05-24 08:28:00,57.0,45.7,30.47,SE,135,4.4,8.1,66,0.00,CLR,,0.00,WeatherDisplay:10.37,2013-05-24 13:28:00,
2013-05-24 08:29:00,57.0,45.7,30.47,SE,135,1.9,4.0,66,0.00,CLR,,0.00,WeatherDisplay:10.37,2013-05-24 13:29:00,
2013-05-24 08:31:00,57.0,46.1,30.47,SSE,157,2.0,6.9,67,0.00,CLR,,0.00,WeatherDisplay:10.37,2013-05-24 13:31:00,
2013-05-24 08:32:00,57.0,46.1,30.47,SSE,157,4.2,5.8,67,0.00,CLR,,0.00,WeatherDisplay:10.37,2013-05-24 13:32:00,
2013-05-24 08:33:00,57.0,46.1,30.47,ENE,67,1.1,4.6,67,0.00,CLR,,0.00,WeatherDisplay:10.37,2013-05-24 13:33:00,
2013-05-24 08:34:00,58.0,46.7,30.47,South,180,5.5,8.0,66,0.00,CLR,,0.00,WeatherDisplay:10.37,2013-05-24 13:34:00,
2013-05-24 08:36:00,57.0,45.7,30.47,SSE,157,3.6,8.1,66,0.00,CLR,,0.00,WeatherDisplay:10.37,2013-05-24 13:36:00,
2013-05-24 08:39:00,57.0,46.5,30.47,SE,135,0.4,3.5,68,0.00,CLR,,0.00,WeatherDisplay:10.37,2013-05-24 13:39:00,
2013-05-24 08:40:00,58.0,47.5,30.47,ESE,112,1.9,4.0,68,0.00,CLR,,0.00,WeatherDisplay:10.37,2013-05-24 13:40:00,
2013-05-24 08:42:00,58.0,47.1,30.47,ESE,112,5.0,6.0,67,0.00,CLR,,0.00,WeatherDisplay:10.37,2013-05-24 13:42:00,
2013-05-24 08:44:00,58.0,47.1,30.47,SSW,202,1.4,6.9,67,0.00,CLR,,0.00,WeatherDisplay:10.37,2013-05-24 13:44:00,
2013-05-24 08:45:00,58.0,46.3,30.47,SE,135,4.1,4.1,65,0.00,CLR,,0.00,WeatherDisplay:10.37,2013-05-24 13:45:00,
2013-05-24 08:47:00,58.0,46.7,30.47,SSE,157,0.7,6.9,66,0.00,CLR,,0.00,WeatherDisplay:10.37,2013-05-24 13:47:00,
2013-05-24 08:49:00,58.0,46.7,30.47,ESE,112,4.0,5.8,66,0.00,CLR,,0.00,WeatherDisplay:10.37,2013-05-24 13:49:00,
2013-05-24 08:50:00,58.0,46.7,30.47,East,90,3.7,7.0,66,0.00,CLR,,0.00,WeatherDisplay:10.37,2013-05-24 13:50:00,
2013-05-24 08:52:00,58.0,47.1,30.47,SE,135,2.8,6.9,67,0.00,CLR,,0.00,WeatherDisplay:10.37,2013-05-24 13:52:00,
2013-05-24 08:54:00,58.0,47.5,30.47,WSW,247,1.6,3.5,68,0.00,CLR,,0.00,WeatherDisplay:10.37,2013-05-24 13:54:00,
2013-05-24 08:55:00,58.0,47.5,30.46,WSW,247,0.2,3.5,68,0.00,CLR,,0.00,WeatherDisplay:10.37,2013-05-24 13:55:00,
2013-05-24 08:57:00,59.0,48.1,30.46,East,90,5.1,9.2,67,0.00,CLR,,0.00,WeatherDisplay:10.37,2013-05-24 13:57:00,
2013-05-24 08:59:00,59.0,47.7,30.46,SE,135,4.1,7.0,66,0.00,CLR,,0.00,WeatherDisplay:10.37,2013-05-24 13:59:00,
2013-05-24 09:00:00,60.0,48.6,30.46,ESE,112,3.2,5.8,66,0.00,CLR,,0.00,WeatherDisplay:10.37,2013-05-24 14:00:00,
2013-05-24 09:02:00,60.0,48.2,30.46,East,90,1.5,6.0,65,0.00,CLR,,0.00,WeatherDisplay:10.37,2013-05-24 14:02:00,
2013-05-24 09:04:00,61.0,47.9,30.43,ESE,112,3.9,6.9,62,0.00,CLR,,0.00,WeatherDisplay:10.37,2013-05-24 14:04:00,
2013-05-24 09:05:00,61.0,47.9,30.43,SE,135,5.1,8.0,62,0.00,CLR,,0.00,WeatherDisplay:10.37,2013-05-24 14:05:00,
2013-05-24 09:08:00,61.0,47.9,30.43,ESE,112,3.7,11.5,62,0.00,CLR,,0.00,WeatherDisplay:10.37,2013-05-24 14:08:00,
2013-05-24 09:10:00,61.0,47.9,30.43,ESE,112,5.2,9.2,62,0.00,CLR,,0.00,WeatherDisplay:10.37,2013-05-24 14:10:00,
2013-05-24 09:11:00,61.0,47.9,30.43,SE,135,2.9,8.1,62,0.00,CLR,,0.00,WeatherDisplay:10.37,2013-05-24 14:11:00,
2013-05-24 09:13:00,62.0,47.5,30.43,ESE,112,4.8,10.0,59,0.00,CLR,,0.00,WeatherDisplay:10.37,2013-05-24 14:13:00,
2013-05-24 09:15:00,61.0,47.0,30.42,ESE,112,3.0,10.0,60,0.00,CLR,,0.00,WeatherDisplay:10.37,2013-05-24 14:15:00,
2013-05-24 09:16:00,61.0,47.9,30.42,ESE,112,4.7,10.4,62,0.00,CLR,,0.00,WeatherDisplay:10.37,2013-05-24 14:16:00,
2013-05-24 09:18:00,61.0,47.9,30.42,SE,135,3.7,12.7,62,0.00,CLR,,0.00,WeatherDisplay:10.37,2013-05-24 14:18:00,
2013-05-24 09:20:00,61.0,48.3,30.42,South,180,2.5,9.2,63,0.00,CLR,,0.00,WeatherDisplay:10.37,2013-05-24 14:20:00,
2013-05-24 09:21:00,61.0,48.7,30.42,South,180,1.5,6.9,64,0.00,CLR,,0.00,WeatherDisplay:10.37,2013-05-24 14:21:00,
2013-05-24 09:23:00,62.0,49.7,30.42,ENE,67,2.1,3.5,64,0.00,CLR,,0.00,WeatherDisplay:10.37,2013-05-24 14:23:00,
2013-05-24 09:25:00,62.0,48.4,30.42,ESE,112,7.4,12.7,61,0.00,CLR,,0.00,WeatherDisplay:10.37,2013-05-24 14:25:00,
2013-05-24 09:26:00,62.0,48.4,30.42,South,180,7.2,12.7,61,0.00,CLR,,0.00,WeatherDisplay:10.37,2013-05-24 14:26:00,
2013-05-24 09:28:00,62.0,48.4,30.42,ESE,112,4.0,10.4,61,0.00,CLR,,0.00,WeatherDisplay:10.37,2013-05-24 14:28:00,
2013-05-24 09:30:00,62.0,48.4,30.42,ESE,112,7.5,12.0,61,0.00,CLR,,0.00,WeatherDisplay:10.37,2013-05-24 14:30:00,
2013-05-24 09:31:00,62.0,48.4,30.42,SE,135,9.3,11.5,61,0.00,CLR,,0.00,WeatherDisplay:10.37,2013-05-24 14:31:00,
2013-05-24 09:32:00,62.0,48.8,30.42,ENE,67,6.7,16.1,62,0.00,CLR,,0.00,WeatherDisplay:10.37,2013-05-24 14:32:00,
2013-05-24 09:33:00,62.0,48.8,30.42,SW,225,1.7,9.2,62,0.00,CLR,,0.00,WeatherDisplay:10.37,2013-05-24 14:33:00,
2013-05-24 09:36:00,62.0,48.0,30.42,SSE,157,5.8,10.4,60,0.00,CLR,,0.00,WeatherDisplay:10.37,2013-05-24 14:36:00,
2013-05-24 09:37:00,62.0,48.4,30.42,ESE,112,4.3,10.4,61,0.00,CLR,,0.00,WeatherDisplay:10.37,2013-05-24 14:37:00,
2013-05-24 09:38:00,62.0,48.8,30.42,South,180,3.4,5.0,62,0.00,CLR,,0.00,WeatherDisplay:10.37,2013-05-24 14:38:00,
2013-05-24 09:41:00,62.0,48.0,30.42,East,90,4.6,12.7,60,0.00,CLR,,0.00,WeatherDisplay:10.37,2013-05-24 14:41:00,
2013-05-24 09:42:00,62.0,48.8,30.42,SSE,157,3.9,11.5,62,0.00,CLR,,0.00,WeatherDisplay:10.37,2013-05-24 14:42:00,
2013-05-24 09:43:00,62.0,48.0,30.42,ESE,112,6.6,11.5,60,0.00,CLR,,0.00,WeatherDisplay:10.37,2013-05-24 14:43:00,
2013-05-24 09:46:00,62.0,48.0,30.42,ESE,112,7.7,10.4,60,0.00,CLR,,0.00,WeatherDisplay:10.37,2013-05-24 14:46:00,
2013-05-24 09:47:00,62.0,48.4,30.42,SE,135,5.2,10.4,61,0.00,CLR,,0.00,WeatherDisplay:10.37,2013-05-24 14:47:00,
2013-05-24 09:48:00,62.0,48.0,30.42,East,90,4.7,8.1,60,0.00,CLR,,0.00,WeatherDisplay:10.37,2013-05-24 14:48:00,
2013-05-24 09:51:00,63.0,49.3,30.42,SE,135,3.7,6.9,61,0.00,CLR,,0.00,WeatherDisplay:10.37,2013-05-24 14:51:00,
2013-05-24 09:52:00,63.0,48.9,30.42,East,90,4.7,6.9,60,0.00,CLR,,0.00,WeatherDisplay:10.37,2013-05-24 14:52:00,
2013-05-24 09:53:00,63.0,47.5,30.42,East,90,5.8,11.0,57,0.00,CLR,,0.00,WeatherDisplay:10.37,2013-05-24 14:53:00,
2013-05-24 09:56:00,63.0,47.5,30.41,SE,135,4.7,10.4,57,0.00,CLR,,0.00,WeatherDisplay:10.37,2013-05-24 14:56:00,
2013-05-24 09:57:00,63.0,47.5,30.41,SSE,157,3.8,8.1,57,0.00,CLR,,0.00,WeatherDisplay:10.37,2013-05-24 14:57:00,
2013-05-24 09:58:00,63.0,47.5,30.41,ESE,112,6.2,9.2,57,0.00,CLR,,0.00,WeatherDisplay:10.37,2013-05-24 14:58:00,
2013-05-24 10:01:00,63.0,48.4,30.41,SE,135,5.6,11.5,59,0.00,CLR,,0.00,WeatherDisplay:10.37,2013-05-24 15:01:00,
2013-05-24 10:02:00,63.0,48.0,30.41,SSE,157,4.1,8.1,58,0.00,CLR,,0.00,WeatherDisplay:10.37,2013-05-24 15:02:00,
2013-05-24 10:03:00,64.0,48.5,30.41,ENE,67,6.2,13.0,57,0.00,CLR,,0.00,WeatherDisplay:10.37,2013-05-24 15:03:00,
2013-05-24 10:04:00,64.0,47.5,30.41,East,90,7.4,15.0,55,0.00,CLR,,0.00,WeatherDisplay:10.37,2013-05-24 15:04:00,
2013-05-24 10:06:00,63.0,46.6,30.40,ENE,67,5.7,15.0,55,0.00,CLR,,0.00,WeatherDisplay:10.37,2013-05-24 15:06:00,
2013-05-24 10:07:00,63.0,47.5,30.40,ENE,67,3.8,8.1,57,0.00,CLR,,0.00,WeatherDisplay:10.37,2013-05-24 15:07:00,
2013-05-24 10:08:00,63.0,47.5,30.40,SSE,157,6.3,12.0,57,0.00,CLR,,0.00,WeatherDisplay:10.37,2013-05-24 15:08:00,
2013-05-24 10:09:00,63.0,47.5,30.40,SSE,157,6.6,11.5,57,0.00,CLR,,0.00,WeatherDisplay:10.37,2013-05-24 15:09:00,
2013-05-24 10:12:00,63.0,47.5,30.40,ENE,67,8.6,13.8,57,0.00,CLR,,0.00,WeatherDisplay:10.37,2013-05-24 15:12:00,
2013-05-24 10:13:00,62.0,46.6,30.40,South,180,6.7,11.5,57,0.00,CLR,,0.00,WeatherDisplay:10.37,2013-05-24 15:13:00,
2013-05-24 10:14:00,62.0,46.6,30.40,SSE,157,4.0,10.4,57,0.00,CLR,,0.00,WeatherDisplay:10.37,2013-05-24 15:14:00,
2013-05-24 10:17:00,63.0,47.5,30.41,South,180,5.7,13.8,57,0.00,CLR,,0.00,WeatherDisplay:10.37,2013-05-24 15:17:00,
2013-05-24 10:18:00,63.0,48.0,30.41,ESE,112,4.8,10.4,58,0.00,CLR,,0.00,WeatherDisplay:10.37,2013-05-24 15:18:00,
2013-05-24 10:19:00,63.0,48.0,30.41,ESE,112,5.5,10.4,58,0.00,CLR,,0.00,WeatherDisplay:10.37,2013-05-24 15:19:00,
2013-05-24 10:22:00,64.0,48.0,30.41,SSE,157,5.6,6.0,56,0.00,CLR,,0.00,WeatherDisplay:10.37,2013-05-24 15:22:00,
2013-05-24 10:23:00,64.0,47.5,30.41,SSE,157,5.1,11.5,55,0.00,CLR,,0.00,WeatherDisplay:10.37,2013-05-24 15:23:00,
2013-05-24 10:24:00,65.0,48.4,30.41,South,180,4.9,11.5,55,0.00,CLR,,0.00,WeatherDisplay:10.37,2013-05-24 15:24:00,
2013-05-24 10:27:00,65.0,47.4,30.39,SSE,157,5.1,11.5,53,0.00,CLR,,0.00,WeatherDisplay:10.37,2013-05-24 15:27:00,
2013-05-24 10:28:00,65.0,47.4,30.39,South,180,6.9,11.5,53,0.00,CLR,,0.00,WeatherDisplay:10.37,2013-05-24 15:28:00,
2013-05-24 10:29:00,65.0,47.9,30.39,ESE,112,6.7,11.5,54,0.00,CLR,,0.00,WeatherDisplay:10.37,2013-05-24 15:29:00,
2013-05-24 10:33:00,65.0,47.9,30.39,ESE,112,7.4,10.4,54,0.00,CLR,,0.00,WeatherDisplay:10.37,2013-05-24 15:33:00,
2013-05-24 10:34:00,65.0,47.4,30.39,SSE,157,8.5,19.6,53,0.00,CLR,,0.00,WeatherDisplay:10.37,2013-05-24 15:34:00,
2013-05-24 10:35:00,65.0,46.9,30.38,SSE,157,7.5,13.8,52,0.00,CLR,,0.00,WeatherDisplay:10.37,2013-05-24 15:35:00,
2013-05-24 10:38:00,66.0,48.4,30.38,ESE,112,5.3,10.4,53,0.00,CLR,,0.00,WeatherDisplay:10.37,2013-05-24 15:38:00,
2013-05-24 10:39:00,66.0,46.3,30.38,SE,135,6.2,12.7,49,0.00,CLR,,0.00,WeatherDisplay:10.37,2013-05-24 15:39:00,
2013-05-24 10:40:00,66.0,46.8,30.38,SW,225,8.7,12.7,50,0.00,CLR,,0.00,WeatherDisplay:10.37,2013-05-24 15:40:00,
2013-05-24 10:43:00,66.0,46.8,30.38,ESE,112,8.2,16.1,50,0.00,CLR,,0.00,WeatherDisplay:10.37,2013-05-24 15:43:00,
2013-05-24 10:44:00,66.0,46.8,30.38,East,90,8.6,14.0,50,0.00,CLR,,0.00,WeatherDisplay:10.37,2013-05-24 15:44:00,
2013-05-24 10:45:00,66.0,46.8,30.37,SW,225,7.5,12.7,50,0.00,CLR,,0.00,WeatherDisplay:10.37,2013-05-24 15:45:00,
2013-05-24 10:48:00,66.0,46.3,30.37,SW,225,7.8,11.5,49,0.00,CLR,,0.00,WeatherDisplay:10.37,2013-05-24 15:48:00,
2013-05-24 10:49:00,66.0,46.3,30.37,ESE,112,8.9,13.8,49,0.00,CLR,,0.00,WeatherDisplay:10.37,2013-05-24 15:49:00,
2013-05-24 10:50:00,66.0,46.3,30.37,SSW,202,10.5,13.8,49,0.00,CLR,,0.00,WeatherDisplay:10.37,2013-05-24 15:50:00,
2013-05-24 10:53:00,66.0,47.3,30.37,ESE,112,7.5,15.0,51,0.00,CLR,,0.00,WeatherDisplay:10.37,2013-05-24 15:53:00,
2013-05-24 10:55:00,66.0,46.8,30.36,South,180,7.1,13.8,50,0.00,CLR,,0.00,WeatherDisplay:10.37,2013-05-24 15:55:00,
2013-05-24 10:58:00,66.0,48.4,30.36,ESE,112,4.6,10.4,53,0.00,CLR,,0.00,WeatherDisplay:10.37,2013-05-24 15:58:00,
2013-05-24 11:00:00,66.0,46.8,30.36,South,180,5.8,17.0,50,0.00,CLR,,0.00,WeatherDisplay:10.37,2013-05-24 16:00:00,
2013-05-24 11:01:00,66.0,47.3,30.36,ESE,112,5.5,18.4,51,0.00,CLR,,0.00,WeatherDisplay:10.37,2013-05-24 16:01:00,
2013-05-24 11:04:00,66.0,46.8,30.36,South,180,7.1,11.0,50,0.00,CLR,,0.00,WeatherDisplay:10.37,2013-05-24 16:04:00,
2013-05-24 11:05:00,66.0,47.3,30.35,ESE,112,5.8,16.1,51,0.00,CLR,,0.00,WeatherDisplay:10.37,2013-05-24 16:05:00,
2013-05-24 11:06:00,66.0,46.8,30.35,ENE,67,12.7,12.7,50,0.00,CLR,,0.00,WeatherDisplay:10.37,2013-05-24 16:06:00,
2013-05-24 11:09:00,66.0,46.8,30.35,ESE,112,5.5,16.1,50,0.00,CLR,,0.00,WeatherDisplay:10.37,2013-05-24 16:09:00,
2013-05-24 11:10:00,66.0,46.8,30.35,SE,135,7.0,12.0,50,0.00,CLR,,0.00,WeatherDisplay:10.37,2013-05-24 16:10:00,
2013-05-24 11:11:00,66.0,46.3,30.35,ESE,112,6.3,10.4,49,0.00,CLR,,0.00,WeatherDisplay:10.37,2013-05-24 16:11:00,
2013-05-24 11:12:00,66.0,46.8,30.35,South,180,6.7,10.4,50,0.00,CLR,,0.00,WeatherDisplay:10.37,2013-05-24 16:12:00,
2013-05-24 11:15:00,67.0,48.3,30.35,East,90,3.3,10.4,51,0.00,CLR,,0.00,WeatherDisplay:10.37,2013-05-24 16:15:00,
2013-05-24 11:16:00,67.0,48.3,30.35,SSW,202,4.8,10.4,51,0.00,CLR,,0.00,WeatherDisplay:10.37,2013-05-24 16:16:00,
2013-05-24 11:17:00,67.0,48.3,30.35,South,180,4.6,10.4,51,0.00,CLR,,0.00,WeatherDisplay:10.37,2013-05-24 16:17:00,
2013-05-24 11:20:00,67.0,49.3,30.35,South,180,4.4,13.8,53,0.00,CLR,,0.00,WeatherDisplay:10.37,2013-05-24 16:20:00,
2013-05-24 11:21:00,68.0,49.7,30.35,SSW,202,8.0,12.7,52,0.00,CLR,,0.00,WeatherDisplay:10.37,2013-05-24 16:21:00,
2013-05-24 11:22:00,68.0,49.7,30.35,South,180,8.0,12.7,52,0.00,CLR,,0.00,WeatherDisplay:10.37,2013-05-24 16:22:00,
2013-05-24 11:25:00,68.0,48.7,30.35,ESE,112,3.0,10.4,50,0.00,CLR,,0.00,WeatherDisplay:10.37,2013-05-24 16:25:00,
2013-05-24 11:26:00,68.0,49.2,30.35,SE,135,5.4,10.4,51,0.00,CLR,,0.00,WeatherDisplay:10.37,2013-05-24 16:26:00,
2013-05-24 11:27:00,67.0,47.2,30.35,ENE,67,10.0,16.1,49,0.00,CLR,,0.00,WeatherDisplay:10.37,2013-05-24 16:27:00,
2013-05-24 11:30:00,68.0,50.7,30.35,ENE,67,4.2,11.5,54,0.00,CLR,,0.00,WeatherDisplay:10.37,2013-05-24 16:30:00,
2013-05-24 11:31:00,68.0,50.7,30.35,East,90,4.2,11.5,54,0.00,CLR,,0.00,WeatherDisplay:10.37,2013-05-24 16:31:00,
2013-05-24 11:33:00,68.0,49.2,30.35,NE,45,4.5,9.2,51,0.00,CLR,,0.00,WeatherDisplay:10.37,2013-05-24 16:33:00,
2013-05-24 11:36:00,68.0,49.2,30.35,SSW,202,6.7,15.0,51,0.00,CLR,,0.00,WeatherDisplay:10.37,2013-05-24 16:36:00,
2013-05-24 11:37:00,67.0,47.7,30.35,ESE,112,6.0,12.7,50,0.00,CLR,,0.00,WeatherDisplay:10.37,2013-05-24 16:37:00,
2013-05-24 11:38:00,67.0,47.7,30.35,SSW,202,6.9,10.4,50,0.00,CLR,,0.00,WeatherDisplay:10.37,2013-05-24 16:38:00,
2013-05-24 11:41:00,67.0,47.2,30.35,ESE,112,9.5,16.1,49,0.00,CLR,,0.00,WeatherDisplay:10.37,2013-05-24 16:41:00,
2013-05-24 11:42:00,67.0,47.2,30.35,East,90,10.5,19.6,49,0.00,CLR,,0.00,WeatherDisplay:10.37,2013-05-24 16:42:00,
2013-05-24 11:43:00,67.0,48.3,30.35,East,90,6.4,11.5,51,0.00,CLR,,0.00,WeatherDisplay:10.37,2013-05-24 16:43:00,
2013-05-24 11:46:00,67.0,47.2,30.34,SSE,157,9.6,17.3,49,0.00,CLR,,0.00,WeatherDisplay:10.37,2013-05-24 16:46:00,
2013-05-24 11:47:00,67.0,47.2,30.34,ENE,67,4.6,13.8,49,0.00,CLR,,0.00,WeatherDisplay:10.37,2013-05-24 16:47:00,
2013-05-24 11:48:00,68.0,49.2,30.34,ENE,67,3.8,8.1,51,0.00,CLR,,0.00,WeatherDisplay:10.37,2013-05-24 16:48:00,
2013-05-24 11:51:00,69.0,50.1,30.34,West,270,5.8,10.4,51,0.00,CLR,,0.00,WeatherDisplay:10.37,2013-05-24 16:51:00,
2013-05-24 11:52:00,69.0,49.0,30.34,ESE,112,3.8,12.0,49,0.00,CLR,,0.00,WeatherDisplay:10.37,2013-05-24 16:52:00,
2013-05-24 11:54:00,68.0,48.7,30.34,SSE,157,10.5,19.6,50,0.00,CLR,,0.00,WeatherDisplay:10.37,2013-05-24 16:54:00,
2013-05-24 11:56:00,68.0,47.6,30.34,ESE,112,11.3,23.0,48,0.00,CLR,,0.00,WeatherDisplay:10.37,2013-05-24 16:56:00,
2013-05-24 11:57:00,68.0,49.2,30.34,South,180,10.3,23.0,51,0.00,CLR,,0.00,WeatherDisplay:10.37,2013-05-24 16:57:00,
2013-05-24 11:59:00,68.0,48.7,30.34,ESE,112,4.5,10.4,50,0.00,CLR,,0.00,WeatherDisplay:10.37,2013-05-24 16:59:00,
2013-05-24 12:01:00,68.0,49.2,30.34,ESE,112,9.1,13.8,51,0.00,CLR,,0.00,WeatherDisplay:10.37,2013-05-24 17:01:00,
2013-05-24 12:02:00,68.0,49.2,30.34,ESE,112,11.5,13.8,51,0.00,CLR,,0.00,WeatherDisplay:10.37,2013-05-24 17:02:00,
2013-05-24 12:03:00,67.0,47.2,30.34,ESE,112,8.9,19.6,49,0.00,CLR,,0.00,WeatherDisplay:10.37,2013-05-24 17:03:00,
2013-05-24 12:04:00,67.0,46.7,30.34,NE,45,8.3,15.0,48,0.00,CLR,,0.00,WeatherDisplay:10.37,2013-05-24 17:04:00,
2013-05-24 12:07:00,68.0,48.7,30.35,SE,135,7.6,13.8,50,0.00,CLR,,0.00,WeatherDisplay:10.37,2013-05-24 17:07:00,
2013-05-24 12:08:00,68.0,49.2,30.35,SW,225,7.9,11.5,51,0.00,CLR,,0.00,WeatherDisplay:10.37,2013-05-24 17:08:00,
2013-05-24 12:10:00,68.0,48.7,30.35,ESE,112,9.7,16.1,50,0.00,CLR,,0.00,WeatherDisplay:10.37,2013-05-24 17:10:00,
2013-05-24 12:12:00,68.0,48.7,30.35,South,180,7.9,15.0,50,0.00,CLR,,0.00,WeatherDisplay:10.37,2013-05-24 17:12:00,
2013-05-24 12:13:00,69.0,49.6,30.35,SW,225,5.4,13.8,50,0.00,CLR,,0.00,WeatherDisplay:10.37,2013-05-24 17:13:00,
2013-05-24 12:15:00,69.0,48.5,30.35,ESE,112,4.8,13.8,48,0.00,CLR,,0.00,WeatherDisplay:10.37,2013-05-24 17:15:00,
2013-05-24 12:17:00,69.0,48.5,30.35,South,180,8.0,16.1,48,0.00,CLR,,0.00,WeatherDisplay:10.37,2013-05-24 17:17:00,
2013-05-24 12:18:00,69.0,48.5,30.35,ESE,112,8.0,11.5,48,0.00,CLR,,0.00,WeatherDisplay:10.37,2013-05-24 17:18:00,
2013-05-24 12:20:00,69.0,49.6,30.35,ENE,67,6.4,10.4,50,0.00,CLR,,0.00,WeatherDisplay:10.37,2013-05-24 17:20:00,
2013-05-24 12:22:00,69.0,50.1,30.35,ENE,67,5.9,13.8,51,0.00,CLR,,0.00,WeatherDisplay:10.37,2013-05-24 17:22:00,
2013-05-24 12:24:00,69.0,49.0,30.35,South,180,7.0,11.5,49,0.00,CLR,,0.00,WeatherDisplay:10.37,2013-05-24 17:24:00,
2013-05-24 12:25:00,70.0,50.5,30.34,SE,135,5.6,12.0,50,0.00,CLR,,0.00,WeatherDisplay:10.37,2013-05-24 17:25:00,
2013-05-24 12:27:00,69.0,49.0,30.34,ESE,112,3.7,16.1,49,0.00,CLR,,0.00,WeatherDisplay:10.37,2013-05-24 17:27:00,
2013-05-24 12:28:00,69.0,49.6,30.34,SSE,157,6.4,10.4,50,0.00,CLR,,0.00,WeatherDisplay:10.37,2013-05-24 17:28:00,
2013-05-24 12:29:00,69.0,49.6,30.34,NE,45,6.4,10.4,50,0.00,CLR,,0.00,WeatherDisplay:10.37,2013-05-24 17:29:00,
2013-05-24 12:31:00,69.0,49.6,30.34,SE,135,8.1,16.1,50,0.00,CLR,,0.00,WeatherDisplay:10.37,2013-05-24 17:31:00,
2013-05-24 12:32:00,69.0,49.6,30.34,SE,135,6.5,11.5,50,0.00,CLR,,0.00,WeatherDisplay:10.37,2013-05-24 17:32:00,
2013-05-24 12:33:00,70.0,51.0,30.34,SSE,157,6.1,11.5,51,0.00,CLR,,0.00,WeatherDisplay:10.37,2013-05-24 17:33:00,
2013-05-24 12:34:00,69.0,48.5,30.34,SSE,157,12.3,15.0,48,0.00,CLR,,0.00,WeatherDisplay:10.37,2013-05-24 17:34:00,
2013-05-24 12:36:00,69.0,49.6,30.34,South,180,6.4,12.7,50,0.00,CLR,,0.00,WeatherDisplay:10.37,2013-05-24 17:36:00,
2013-05-24 12:37:00,69.0,50.1,30.34,ESE,112,5.0,11.5,51,0.00,CLR,,0.00,WeatherDisplay:10.37,2013-05-24 17:37:00,
2013-05-24 12:38:00,69.0,49.6,30.34,West,270,4.2,11.5,50,0.00,CLR,,0.00,WeatherDisplay:10.37,2013-05-24 17:38:00,
2013-05-24 12:39:00,69.0,49.6,30.34,South,180,5.6,9.2,50,0.00,CLR,,0.00,WeatherDisplay:10.37,2013-05-24 17:39:00,
2013-05-24 12:40:00,69.0,49.0,30.34,SSE,157,7.2,9.2,49,0.00,CLR,,0.00,WeatherDisplay:10.37,2013-05-24 17:40:00,
2013-05-24 12:41:00,69.0,49.0,30.34,WSW,247,2.3,12.7,49,0.00,CLR,,0.00,WeatherDisplay:10.37,2013-05-24 17:41:00,
2013-05-24 12:42:00,69.0,48.5,30.34,WSW,247,7.2,13.8,48,0.00,CLR,,0.00,WeatherDisplay:10.37,2013-05-24 17:42:00,
2013-05-24 12:43:00,69.0,50.1,30.34,SE,135,4.3,10.4,51,0.00,CLR,,0.00,WeatherDisplay:10.37,2013-05-24 17:43:00,
2013-05-24 12:44:00,69.0,50.1,30.34,West,270,3.1,8.1,51,0.00,CLR,,0.00,WeatherDisplay:10.37,2013-05-24 17:44:00,
2013-05-24 12:45:00,69.0,49.0,30.34,ENE,67,5.0,8.1,49,0.00,CLR,,0.00,WeatherDisplay:10.37,2013-05-24 17:45:00,
2013-05-24 12:46:00,70.0,51.0,30.34,ENE,67,5.1,12.7,51,0.00,CLR,,0.00,WeatherDisplay:10.37,2013-05-24 17:46:00,
2013-05-24 12:47:00,70.0,50.0,30.34,South,180,3.4,10.4,49,0.00,CLR,,0.00,WeatherDisplay:10.37,2013-05-24 17:47:00,
2013-05-24 12:49:00,70.0,49.4,30.34,SE,135,6.7,10.4,48,0.00,CLR,,0.00,WeatherDisplay:10.37,2013-05-24 17:49:00,
2013-05-24 12:50:00,70.0,48.8,30.34,SW,225,7.8,12.7,47,0.00,CLR,,0.00,WeatherDisplay:10.37,2013-05-24 17:50:00,
2013-05-24 12:51:00,70.0,48.3,30.34,NNW,337,12.7,23.0,46,0.00,CLR,,0.00,WeatherDisplay:10.37,2013-05-24 17:51:00,
2013-05-24 12:52:00,70.0,49.4,30.34,South,180,3.0,12.7,48,0.00,CLR,,0.00,WeatherDisplay:10.37,2013-05-24 17:52:00,
2013-05-24 12:54:00,70.0,49.4,30.34,SW,225,4.5,15.0,48,0.00,CLR,,0.00,WeatherDisplay:10.37,2013-05-24 17:54:00,
2013-05-24 12:55:00,70.0,48.8,30.34,SSE,157,8.4,12.7,47,0.00,CLR,,0.00,WeatherDisplay:10.37,2013-05-24 17:55:00,
2013-05-24 12:56:00,69.0,49.0,30.34,ESE,112,7.0,13.0,49,0.00,CLR,,0.00,WeatherDisplay:10.37,2013-05-24 17:56:00,
2013-05-24 12:58:00,69.0,50.1,30.34,SW,225,2.6,12.7,51,0.00,CLR,,0.00,WeatherDisplay:10.37,2013-05-24 17:58:00,
2013-05-24 12:59:00,69.0,50.1,30.34,SSW,202,6.3,11.0,51,0.00,CLR,,0.00,WeatherDisplay:10.37,2013-05-24 17:59:00,
2013-05-24 13:00:00,69.0,49.6,30.34,WSW,247,7.2,7.2,50,0.00,CLR,,0.00,WeatherDisplay:10.37,2013-05-24 18:00:00,
2013-05-24 13:01:00,69.0,50.1,30.34,SSW,202,6.4,13.0,51,0.00,CLR,,0.00,WeatherDisplay:10.37,2013-05-24 18:01:00,
2013-05-24 13:03:00,69.0,49.6,30.34,SSE,157,4.5,12.7,50,0.00,CLR,,0.00,WeatherDisplay:10.37,2013-05-24 18:03:00,
2013-05-24 13:04:00,70.0,50.5,30.34,ESE,112,5.3,10.4,50,0.00,CLR,,0.00,WeatherDisplay:10.37,2013-05-24 18:04:00,
2013-05-24 13:05:00,70.0,50.5,30.33,SSE,157,5.5,10.4,50,0.00,CLR,,0.00,WeatherDisplay:10.37,2013-05-24 18:05:00,
2013-05-24 13:06:00,70.0,50.0,30.33,SE,135,6.9,11.5,49,0.00,CLR,,0.00,WeatherDisplay:10.37,2013-05-24 18:06:00,
2013-05-24 13:08:00,70.0,49.4,30.33,South,180,8.4,15.0,48,0.00,CLR,,0.00,WeatherDisplay:10.37,2013-05-24 18:08:00,
2013-05-24 13:09:00,70.0,49.4,30.33,South,180,9.4,16.1,48,0.00,CLR,,0.00,WeatherDisplay:10.37,2013-05-24 18:09:00,
2013-05-24 13:10:00,69.0,47.9,30.33,SSE,157,7.8,16.1,47,0.00,CLR,,0.00,WeatherDisplay:10.37,2013-05-24 18:10:00,
2013-05-24 13:11:00,69.0,49.0,30.33,ESE,112,8.9,19.6,49,0.00,CLR,,0.00,WeatherDisplay:10.37,2013-05-24 18:11:00,
2013-05-24 13:13:00,70.0,50.0,30.33,SE,135,8.8,12.7,49,0.00,CLR,,0.00,WeatherDisplay:10.37,2013-05-24 18:13:00,
2013-05-24 13:15:00,70.0,50.5,30.33,ESE,112,6.8,11.5,50,0.00,CLR,,0.00,WeatherDisplay:10.37,2013-05-24 18:15:00,
2013-05-24 13:17:00,70.0,49.4,30.33,ENE,67,7.4,15.0,48,0.00,CLR,,0.00,WeatherDisplay:10.37,2013-05-24 18:17:00,
2013-05-24 13:18:00,70.0,49.4,30.33,ESE,112,8.8,12.7,48,0.00,CLR,,0.00,WeatherDisplay:10.37,2013-05-24 18:18:00,
2013-05-24 13:20:00,70.0,49.4,30.33,WSW,247,6.1,13.8,48,0.00,CLR,,0.00,WeatherDisplay:10.37,2013-05-24 18:20:00,
2013-05-24 13:21:00,70.0,49.4,30.33,South,180,5.0,13.8,48,0.00,CLR,,0.00,WeatherDisplay:10.37,2013-05-24 18:21:00,
2013-05-24 13:22:00,70.0,51.0,30.33,WSW,247,2.4,10.4,51,0.00,CLR,,0.00,WeatherDisplay:10.37,2013-05-24 18:22:00,
2013-05-24 13:23:00,70.0,50.5,30.33,ENE,67,2.7,10.4,50,0.00,CLR,,0.00,WeatherDisplay:10.37,2013-05-24 18:23:00,
2013-05-24 13:25:00,70.0,47.7,30.33,SSW,202,9.4,18.4,45,0.00,CLR,,0.00,WeatherDisplay:10.37,2013-05-24 18:25:00,
2013-05-24 13:26:00,70.0,48.8,30.33,SE,135,7.5,18.4,47,0.00,CLR,,0.00,WeatherDisplay:10.37,2013-05-24 18:26:00,
2013-05-24 13:27:00,70.0,48.8,30.33,WSW,247,8.1,11.5,47,0.00,CLR,,0.00,WeatherDisplay:10.37,2013-05-24 18:27:00,
2013-05-24 13:28:00,70.0,48.3,30.33,South,180,9.1,13.0,46,0.00,CLR,,0.00,WeatherDisplay:10.37,2013-05-24 18:28:00,
2013-05-24 13:30:00,70.0,48.3,30.33,SSE,157,6.3,11.5,46,0.00,CLR,,0.00,WeatherDisplay:10.37,2013-05-24 18:30:00,
2013-05-24 13:31:00,70.0,48.3,30.33,WSW,247,8.1,13.8,46,0.00,CLR,,0.00,WeatherDisplay:10.37,2013-05-24 18:31:00,
2013-05-24 13:33:00,71.0,49.7,30.33,East,90,6.0,13.8,47,0.00,CLR,,0.00,WeatherDisplay:10.37,2013-05-24 18:33:00,
2013-05-24 13:35:00,71.0,49.2,30.33,SSE,157,4.8,11.0,46,0.00,CLR,,0.00,WeatherDisplay:10.37,2013-05-24 18:35:00,
2013-05-24 13:36:00,71.0,49.2,30.33,SSW,202,6.2,6.9,46,0.00,CLR,,0.00,WeatherDisplay:10.37,2013-05-24 18:36:00,
2013-05-24 13:38:00,71.0,48.0,30.33,WSW,247,9.8,21.9,44,0.00,CLR,,0.00,WeatherDisplay:10.37,2013-05-24 18:38:00,
2013-05-24 13:41:00,70.0,47.7,30.33,West,270,9.6,19.6,45,0.00,CLR,,0.00,WeatherDisplay:10.37,2013-05-24 18:41:00,
2013-05-24 13:43:00,71.0,49.2,30.33,WNW,292,6.1,19.6,46,0.00,CLR,,0.00,WeatherDisplay:10.37,2013-05-24 18:43:00,
2013-05-24 13:46:00,71.0,48.6,30.33,SSE,157,5.4,8.0,45,0.00,CLR,,0.00,WeatherDisplay:10.37,2013-05-24 18:46:00,
2013-05-24 13:47:00,71.0,46.7,30.33,SSW,202,5.8,16.0,42,0.00,CLR,,0.00,WeatherDisplay:10.37,2013-05-24 18:47:00,
2013-05-24 13:48:00,71.0,46.7,30.33,South,180,3.7,18.4,42,0.00,CLR,,0.00,WeatherDisplay:10.37,2013-05-24 18:48:00,
2013-05-24 13:51:00,71.0,48.6,30.33,ENE,67,3.5,13.8,45,0.00,CLR,,0.00,WeatherDisplay:10.37,2013-05-24 18:51:00,
2013-05-24 13:52:00,71.0,49.2,30.33,WSW,247,3.5,6.9,46,0.00,CLR,,0.00,WeatherDisplay:10.37,2013-05-24 18:52:00,
2013-05-24 13:54:00,71.0,48.0,30.33,ESE,112,5.3,10.0,44,0.00,CLR,,0.00,WeatherDisplay:10.37,2013-05-24 18:54:00,
2013-05-24 13:56:00,71.0,46.7,30.32,SSW,202,11.0,13.0,42,0.00,CLR,,0.00,WeatherDisplay:10.37,2013-05-24 18:56:00,
2013-05-24 13:57:00,71.0,46.7,30.32,WSW,247,6.8,19.6,42,0.00,CLR,,0.00,WeatherDisplay:10.37,2013-05-24 18:57:00,
2013-05-24 13:59:00,70.0,47.7,30.32,ESE,112,2.6,11.5,45,0.00,CLR,,0.00,WeatherDisplay:10.37,2013-05-24 18:59:00,
2013-05-24 14:01:00,71.0,49.2,30.32,NW,315,5.6,10.4,46,0.00,CLR,,0.00,WeatherDisplay:10.37,2013-05-24 19:01:00,
2013-05-24 14:02:00,71.0,48.6,30.32,SSE,157,7.5,11.5,45,0.00,CLR,,0.00,WeatherDisplay:10.37,2013-05-24 19:02:00,
2013-05-24 14:04:00,71.0,49.2,30.32,East,90,6.4,11.5,46,0.00,CLR,,0.00,WeatherDisplay:10.37,2013-05-24 19:04:00,
2013-05-24 14:06:00,70.0,48.3,30.32,SE,135,5.9,9.2,46,0.00,CLR,,0.00,WeatherDisplay:10.37,2013-05-24 19:06:00,
2013-05-24 14:08:00,70.0,47.7,30.32,SSE,157,6.4,12.0,45,0.00,CLR,,0.00,WeatherDisplay:10.37,2013-05-24 19:08:00,
2013-05-24 14:09:00,70.0,48.3,30.32,SW,225,6.2,15.0,46,0.00,CLR,,0.00,WeatherDisplay:10.37,2013-05-24 19:09:00,
2013-05-24 14:11:00,70.0,48.3,30.32,ESE,112,6.3,11.5,46,0.00,CLR,,0.00,WeatherDisplay:10.37,2013-05-24 19:11:00,
2013-05-24 14:12:00,70.0,47.7,30.32,SSE,157,8.3,17.3,45,0.00,CLR,,0.00,WeatherDisplay:10.37,2013-05-24 19:12:00,
2013-05-24 14:13:00,70.0,48.3,30.32,SE,135,9.4,17.3,46,0.00,CLR,,0.00,WeatherDisplay:10.37,2013-05-24 19:13:00,
2013-05-24 14:14:00,70.0,47.7,30.32,WSW,247,4.6,10.4,45,0.00,CLR,,0.00,WeatherDisplay:10.37,2013-05-24 19:14:00,
2013-05-24 14:16:00,70.0,47.7,30.32,South,180,7.6,12.7,45,0.00,CLR,,0.00,WeatherDisplay:10.37,2013-05-24 19:16:00,
2013-05-24 14:17:00,70.0,47.7,30.32,SSE,157,2.7,11.5,45,0.00,CLR,,0.00,WeatherDisplay:10.37,2013-05-24 19:17:00,
2013-05-24 14:18:00,70.0,47.7,30.32,South,180,4.8,11.5,45,0.00,CLR,,0.00,WeatherDisplay:10.37,2013-05-24 19:18:00,
2013-05-24 14:19:00,70.0,48.3,30.32,ESE,112,5.1,8.1,46,0.00,CLR,,0.00,WeatherDisplay:10.37,2013-05-24 19:19:00,
2013-05-24 14:20:00,70.0,47.7,30.32,SE,135,6.0,8.1,45,0.00,CLR,,0.00,WeatherDisplay:10.37,2013-05-24 19:20:00,
2013-05-24 14:21:00,70.0,47.7,30.32,SSW,202,6.7,12.7,45,0.00,CLR,,0.00,WeatherDisplay:10.37,2013-05-24 19:21:00,
2013-05-24 14:23:00,69.0,46.8,30.32,South,180,6.3,9.2,45,0.00,CLR,,0.00,WeatherDisplay:10.37,2013-05-24 19:23:00,
2013-05-24 14:24:00,69.0,46.8,30.32,ENE,67,7.3,13.8,45,0.00,CLR,,0.00,WeatherDisplay:10.37,2013-05-24 19:24:00,
2013-05-24 14:25:00,70.0,48.3,30.32,SSE,157,6.9,13.8,46,0.00,CLR,,0.00,WeatherDisplay:10.37,2013-05-24 19:25:00,
2013-05-24 14:26:00,70.0,47.7,30.32,SSE,157,4.6,11.0,45,0.00,CLR,,0.00,WeatherDisplay:10.37,2013-05-24 19:26:00,
2013-05-24 14:28:00,70.0,48.3,30.32,SE,135,6.5,11.5,46,0.00,CLR,,0.00,WeatherDisplay:10.37,2013-05-24 19:28:00,
2013-05-24 14:30:00,69.0,47.4,30.32,NW,315,4.0,12.7,46,0.00,CLR,,0.00,WeatherDisplay:10.37,2013-05-24 19:30:00,
2013-05-24 14:32:00,70.0,48.3,30.32,SSE,157,6.5,11.0,46,0.00,CLR,,0.00,WeatherDisplay:10.37,2013-05-24 19:32:00,
2013-05-24 14:33:00,69.0,47.9,30.32,East,90,7.7,12.7,47,0.00,CLR,,0.00,WeatherDisplay:10.37,2013-05-24 19:33:00,
2013-05-24 14:35:00,69.0,47.4,30.33,SSE,157,4.5,6.0,46,0.00,CLR,,0.00,WeatherDisplay:10.37,2013-05-24 19:35:00,
2013-05-24 14:36:00,69.0,46.8,30.33,SE,135,6.3,12.7,45,0.00,CLR,,0.00,WeatherDisplay:10.37,2013-05-24 19:36:00,
2013-05-24 14:37:00,69.0,47.4,30.33,SSE,157,6.4,12.7,46,0.00,CLR,,0.00,WeatherDisplay:10.37,2013-05-24 19:37:00,
2013-05-24 14:38:00,69.0,47.4,30.33,SE,135,5.4,12.7,46,0.00,CLR,,0.00,WeatherDisplay:10.37,2013-05-24 19:38:00,
2013-05-24 14:39:00,69.0,47.4,30.33,ESE,112,6.0,12.7,46,0.00,CLR,,0.00,WeatherDisplay:10.37,2013-05-24 19:39:00,
2013-05-24 14:40:00,69.0,46.8,30.33,South,180,3.7,7.0,45,0.00,CLR,,0.00,WeatherDisplay:10.37,2013-05-24 19:40:00,
2013-05-24 14:41:00,69.0,47.4,30.33,SE,135,3.8,9.2,46,0.00,CLR,,0.00,WeatherDisplay:10.37,2013-05-24 19:41:00,
2013-05-24 14:42:00,69.0,47.4,30.33,ESE,112,3.2,9.2,46,0.00,CLR,,0.00,WeatherDisplay:10.37,2013-05-24 19:42:00,
2013-05-24 14:43:00,70.0,48.8,30.33,WSW,247,0.4,6.9,47,0.00,CLR,,0.00,WeatherDisplay:10.37,2013-05-24 19:43:00,
2013-05-24 14:44:00,70.0,48.8,30.33,South,180,0.7,6.9,47,0.00,CLR,,0.00,WeatherDisplay:10.37,2013-05-24 19:44:00,
2013-05-24 14:45:00,70.0,48.3,30.32,East,90,4.8,11.5,46,0.00,CLR,,0.00,WeatherDisplay:10.37,2013-05-24 19:45:00,
2013-05-24 14:46:00,70.0,48.3,30.32,ESE,112,4.0,6.9,46,0.00,CLR,,0.00,WeatherDisplay:10.37,2013-05-24 19:46:00,
2013-05-24 14:47:00,70.0,48.3,30.32,SE,135,4.0,6.9,46,0.00,CLR,,0.00,WeatherDisplay:10.37,2013-05-24 19:47:00,
2013-05-24 14:49:00,70.0,48.3,30.32,SE,135,7.4,10.4,46,0.00,CLR,,0.00,WeatherDisplay:10.37,2013-05-24 19:49:00,
2013-05-24 14:50:00,70.0,47.7,30.32,ESE,112,5.7,10.4,45,0.00,CLR,,0.00,WeatherDisplay:10.37,2013-05-24 19:50:00,
2013-05-24 14:52:00,69.0,47.4,30.32,ESE,112,7.7,11.5,46,0.00,CLR,,0.00,WeatherDisplay:10.37,2013-05-24 19:52:00,
2013-05-24 14:54:00,69.0,46.8,30.32,ESE,112,7.9,10.4,45,0.00,CLR,,0.00,WeatherDisplay:10.37,2013-05-24 19:54:00,
2013-05-24 14:55:00,69.0,48.5,30.31,SE,135,6.4,13.8,48,0.00,CLR,,0.00,WeatherDisplay:10.37,2013-05-24 19:55:00,
2013-05-24 14:57:00,69.0,47.4,30.31,ENE,67,6.7,10.4,46,0.00,CLR,,0.00,WeatherDisplay:10.37,2013-05-24 19:57:00,
2013-05-24 14:59:00,70.0,47.7,30.31,SSW,202,5.3,11.5,45,0.00,CLR,,0.00,WeatherDisplay:10.37,2013-05-24 19:59:00,
2013-05-24 15:00:00,70.0,47.7,30.31,SSE,157,5.0,8.1,45,0.00,CLR,,0.00,WeatherDisplay:10.37,2013-05-24 20:00:00,
2013-05-24 15:02:00,70.0,47.7,30.31,SSW,202,8.3,10.4,45,0.00,CLR,,0.00,WeatherDisplay:10.37,2013-05-24 20:02:00,
2013-05-24 15:03:00,70.0,47.7,30.31,SSW,202,7.5,13.8,45,0.00,CLR,,0.00,WeatherDisplay:10.37,2013-05-24 20:03:00,
2013-05-24 15:04:00,70.0,47.7,30.31,NW,315,5.3,11.5,45,0.00,CLR,,0.00,WeatherDisplay:10.37,2013-05-24 20:04:00,
2013-05-24 15:06:00,70.0,48.8,30.31,SE,135,4.5,9.0,47,0.00,CLR,,0.00,WeatherDisplay:10.37,2013-05-24 20:06:00,
2013-05-24 15:07:00,70.0,47.7,30.31,ESE,112,5.6,9.2,45,0.00,CLR,,0.00,WeatherDisplay:10.37,2013-05-24 20:07:00,
2013-05-24 15:08:00,71.0,49.2,30.31,East,90,5.8,9.2,46,0.00,CLR,,0.00,WeatherDisplay:10.37,2013-05-24 20:08:00,
2013-05-24 15:09:00,71.0,49.2,30.31,ESE,112,2.3,4.6,46,0.00,CLR,,0.00,WeatherDisplay:10.37,2013-05-24 20:09:00,
2013-05-24 15:10:00,71.0,48.0,30.31,ESE,112,6.2,10.0,44,0.00,CLR,,0.00,WeatherDisplay:10.37,2013-05-24 20:10:00,
2013-05-24 15:11:00,71.0,47.4,30.31,ESE,112,7.2,12.7,43,0.00,CLR,,0.00,WeatherDisplay:10.37,2013-05-24 20:11:00,
2013-05-24 15:12:00,71.0,48.6,30.31,ESE,112,5.6,11.5,45,0.00,CLR,,0.00,WeatherDisplay:10.37,2013-05-24 20:12:00,
2013-05-24 15:13:00,71.0,48.6,30.31,ENE,67,6.3,11.0,45,0.00,CLR,,0.00,WeatherDisplay:10.37,2013-05-24 20:13:00,
2013-05-24 15:14:00,71.0,47.4,30.31,ESE,112,6.1,11.5,43,0.00,CLR,,0.00,WeatherDisplay:10.37,2013-05-24 20:14:00,
2013-05-24 15:15:00,71.0,46.7,30.29,ESE,112,7.6,14.0,42,0.00,CLR,,0.00,WeatherDisplay:10.37,2013-05-24 20:15:00,
2013-05-24 15:16:00,70.0,46.5,30.29,SSE,157,5.1,13.8,43,0.00,CLR,,0.00,WeatherDisplay:10.37,2013-05-24 20:16:00,
2013-05-24 15:17:00,70.0,46.5,30.29,SSE,157,7.0,13.8,43,0.00,CLR,,0.00,WeatherDisplay:10.37,2013-05-24 20:17:00,
2013-05-24 15:18:00,70.0,47.7,30.29,ENE,67,7.3,13.8,45,0.00,CLR,,0.00,WeatherDisplay:10.37,2013-05-24 20:18:00,
2013-05-24 15:19:00,70.0,47.1,30.29,SE,135,6.5,11.5,44,0.00,CLR,,0.00,WeatherDisplay:10.37,2013-05-24 20:19:00,
2013-05-24 15:20:00,70.0,47.7,30.29,SSE,157,4.1,11.5,45,0.00,CLR,,0.00,WeatherDisplay:10.37,2013-05-24 20:20:00,
2013-05-24 15:21:00,70.0,47.1,30.29,ENE,67,6.5,13.8,44,0.00,CLR,,0.00,WeatherDisplay:10.37,2013-05-24 20:21:00,
2013-05-24 15:22:00,70.0,47.7,30.29,ESE,112,5.2,10.4,45,0.00,CLR,,0.00,WeatherDisplay:10.37,2013-05-24 20:22:00,
2013-05-24 15:24:00,71.0,48.6,30.29,SE,135,3.8,8.0,45,0.00,CLR,,0.00,WeatherDisplay:10.37,2013-05-24 20:24:00,
2013-05-24 15:25:00,71.0,48.0,30.28,SSE,157,7.6,8.1,44,0.00,CLR,,0.00,WeatherDisplay:10.37,2013-05-24 20:25:00,
2013-05-24 15:26:00,71.0,47.4,30.28,East,90,7.8,15.0,43,0.00,CLR,,0.00,WeatherDisplay:10.37,2013-05-24 20:26:00,
2013-05-24 15:27:00,71.0,47.4,30.28,SSE,157,10.4,16.1,43,0.00,CLR,,0.00,WeatherDisplay:10.37,2013-05-24 20:27:00,
2013-05-24 15:29:00,71.0,48.0,30.28,SSE,157,6.8,11.5,44,0.00,CLR,,0.00,WeatherDisplay:10.37,2013-05-24 20:29:00,
2013-05-24 15:30:00,71.0,48.0,30.28,South,180,5.6,11.5,44,0.00,CLR,,0.00,WeatherDisplay:10.37,2013-05-24 20:30:00,
2013-05-24 15:31:00,71.0,48.6,30.28,East,90,7.2,18.4,45,0.00,CLR,,0.00,WeatherDisplay:10.37,2013-05-24 20:31:00,
2013-05-24 15:32:00,71.0,46.7,30.28,ESE,112,5.9,12.7,42,0.00,CLR,,0.00,WeatherDisplay:10.37,2013-05-24 20:32:00,
2013-05-24 15:34:00,71.0,48.0,30.26,East,90,9.3,17.3,44,0.00,CLR,,0.00,WeatherDisplay:10.37,2013-05-24 20:34:00,
2013-05-24 15:35:00,71.0,48.0,30.26,SSW,202,10.5,17.3,44,0.00,CLR,,0.00,WeatherDisplay:10.37,2013-05-24 20:35:00,
2013-05-24 15:36:00,71.0,48.0,30.26,ESE,112,8.9,12.7,44,0.00,CLR,,0.00,WeatherDisplay:10.37,2013-05-24 20:36:00,
2013-05-24 15:37:00,71.0,47.4,30.26,SE,135,7.3,26.0,43,0.00,CLR,,0.00,WeatherDisplay:10.37,2013-05-24 20:37:00,
2013-05-24 15:40:00,72.0,48.3,30.26,SSE,157,8.5,15.0,43,0.00,CLR,,0.00,WeatherDisplay:10.37,2013-05-24 20:40:00,
2013-05-24 15:41:00,72.0,49.5,30.26,East,90,3.9,12.7,45,0.00,CLR,,0.00,WeatherDisplay:10.37,2013-05-24 20:41:00,
2013-05-24 15:42:00,72.0,48.3,30.26,ESE,112,8.7,16.1,43,0.00,CLR,,0.00,WeatherDisplay:10.37,2013-05-24 20:42:00,
2013-05-24 15:45:00,72.0,48.9,30.25,South,180,3.8,10.4,44,0.00,CLR,,0.00,WeatherDisplay:10.37,2013-05-24 20:45:00,
2013-05-24 15:46:00,72.0,47.6,30.25,ESE,112,6.3,13.0,42,0.00,CLR,,0.00,WeatherDisplay:10.37,2013-05-24 20:46:00,
2013-05-24 15:47:00,72.0,47.6,30.25,South,180,8.6,17.3,42,0.00,CLR,,0.00,WeatherDisplay:10.37,2013-05-24 20:47:00,
2013-05-24 15:50:00,72.0,47.6,30.25,SE,135,6.6,11.5,42,0.00,CLR,,0.00,WeatherDisplay:10.37,2013-05-24 20:50:00,
2013-05-24 15:51:00,72.0,47.6,30.25,SE,135,8.5,11.5,42,0.00,CLR,,0.00,WeatherDisplay:10.37,2013-05-24 20:51:00,
2013-05-24 15:52:00,71.0,46.7,30.25,SSE,157,10.5,19.6,42,0.00,CLR,,0.00,WeatherDisplay:10.37,2013-05-24 20:52:00,
2013-05-24 15:53:00,71.0,47.4,30.25,SE,135,5.7,19.6,43,0.00,CLR,,0.00,WeatherDisplay:10.37,2013-05-24 20:53:00,
2013-05-24 15:55:00,72.0,47.0,30.25,ENE,67,5.9,10.4,41,0.00,CLR,,0.00,WeatherDisplay:10.37,2013-05-24 20:55:00,
2013-05-24 15:56:00,72.0,48.9,30.25,ESE,112,7.9,10.4,44,0.00,CLR,,0.00,WeatherDisplay:10.37,2013-05-24 20:56:00,
2013-05-24 15:57:00,72.0,48.3,30.25,SE,135,8.1,16.1,43,0.00,CLR,,0.00,WeatherDisplay:10.37,2013-05-24 20:57:00,
2013-05-24 15:58:00,72.0,47.0,30.25,East,90,11.1,19.6,41,0.00,CLR,,0.00,WeatherDisplay:10.37,2013-05-24 20:58:00,
2013-05-24 16:00:00,72.0,48.9,30.25,ESE,112,5.5,8.1,44,0.00,CLR,,0.00,WeatherDisplay:10.37,2013-05-24 21:00:00,
2013-05-24 16:01:00,72.0,47.6,30.25,SE,135,5.8,8.1,42,0.00,CLR,,0.00,WeatherDisplay:10.37,2013-05-24 21:01:00,
2013-05-24 16:02:00,72.0,47.0,30.25,SSE,157,7.2,18.4,41,0.00,CLR,,0.00,WeatherDisplay:10.37,2013-05-24 21:02:00,
2013-05-24 16:03:00,72.0,47.0,30.25,ENE,67,9.7,18.4,41,0.00,CLR,,0.00,WeatherDisplay:10.37,2013-05-24 21:03:00,
2013-05-24 16:04:00,72.0,47.0,30.25,ESE,112,9.3,16.1,41,0.00,CLR,,0.00,WeatherDisplay:10.37,2013-05-24 21:04:00,
2013-05-24 16:05:00,72.0,46.3,30.24,ESE,112,9.5,15.0,40,0.00,CLR,,0.00,WeatherDisplay:10.37,2013-05-24 21:05:00,
2013-05-24 16:06:00,71.0,46.1,30.24,NNW,337,8.2,15.0,41,0.00,CLR,,0.00,WeatherDisplay:10.37,2013-05-24 21:06:00,
2013-05-24 16:07:00,71.0,46.1,30.24,SSE,157,10.3,17.3,41,0.00,CLR,,0.00,WeatherDisplay:10.37,2013-05-24 21:07:00,
2013-05-24 16:08:00,71.0,46.1,30.24,SE,135,9.6,17.3,41,0.00,CLR,,0.00,WeatherDisplay:10.37,2013-05-24 21:08:00,
2013-05-24 16:09:00,71.0,46.1,30.24,SE,135,11.6,19.6,41,0.00,CLR,,0.00,WeatherDisplay:10.37,2013-05-24 21:09:00,
2013-05-24 16:10:00,71.0,46.1,30.24,SE,135,5.0,19.6,41,0.00,CLR,,0.00,WeatherDisplay:10.37,2013-05-24 21:10:00,
2013-05-24 16:11:00,71.0,46.1,30.24,SE,135,8.0,19.6,41,0.00,CLR,,0.00,WeatherDisplay:10.37,2013-05-24 21:11:00,
2013-05-24 16:13:00,70.0,45.2,30.24,NE,45,8.5,10.4,41,0.00,CLR,,0.00,WeatherDisplay:10.37,2013-05-24 21:13:00,
2013-05-24 16:14:00,71.0,47.4,30.24,SE,135,6.6,11.0,43,0.00,CLR,,0.00,WeatherDisplay:10.37,2013-05-24 21:14:00,
2013-05-24 16:15:00,70.0,46.5,30.24,SSE,157,6.6,13.8,43,0.00,CLR,,0.00,WeatherDisplay:10.37,2013-05-24 21:15:00,
2013-05-24 16:16:00,70.0,46.5,30.24,ESE,112,4.3,13.8,43,0.00,CLR,,0.00,WeatherDisplay:10.37,2013-05-24 21:16:00,
2013-05-24 16:18:00,70.0,46.5,30.24,ENE,67,8.9,12.7,43,0.00,CLR,,0.00,WeatherDisplay:10.37,2013-05-24 21:18:00,
2013-05-24 16:19:00,70.0,47.1,30.24,SSW,202,4.5,10.4,44,0.00,CLR,,0.00,WeatherDisplay:10.37,2013-05-24 21:19:00,
2013-05-24 16:20:00,70.0,47.7,30.24,WSW,247,4.2,8.1,45,0.00,CLR,,0.00,WeatherDisplay:10.37,2013-05-24 21:20:00,
2013-05-24 16:21:00,70.0,47.7,30.24,SSE,157,6.0,8.1,45,0.00,CLR,,0.00,WeatherDisplay:10.37,2013-05-24 21:21:00,
2013-05-24 16:23:00,70.0,46.5,30.24,SE,135,7.7,15.0,43,0.00,CLR,,0.00,WeatherDisplay:10.37,2013-05-24 21:23:00,
2013-05-24 16:24:00,70.0,46.5,30.24,ESE,112,7.0,12.0,43,0.00,CLR,,0.00,WeatherDisplay:10.37,2013-05-24 21:24:00,
2013-05-24 16:26:00,70.0,46.5,30.24,WSW,247,7.6,15.0,43,0.00,CLR,,0.00,WeatherDisplay:10.37,2013-05-24 21:26:00,
2013-05-24 16:28:00,69.0,46.2,30.24,ESE,112,9.7,20.7,44,0.00,CLR,,0.00,WeatherDisplay:10.37,2013-05-24 21:28:00,
2013-05-24 16:30:00,70.0,46.5,30.24,SE,135,4.2,12.7,43,0.00,CLR,,0.00,WeatherDisplay:10.37,2013-05-24 21:30:00,
2013-05-24 16:31:00,70.0,47.1,30.24,SE,135,7.9,19.6,44,0.00,CLR,,0.00,WeatherDisplay:10.37,2013-05-24 21:31:00,
2013-05-24 16:33:00,70.0,47.1,30.24,ENE,67,7.3,12.7,44,0.00,CLR,,0.00,WeatherDisplay:10.37,2013-05-24 21:33:00,
2013-05-24 16:35:00,70.0,46.5,30.24,ESE,112,4.1,11.5,43,0.00,CLR,,0.00,WeatherDisplay:10.37,2013-05-24 21:35:00,
2013-05-24 16:36:00,70.0,47.7,30.24,NNE,22,5.7,9.2,45,0.00,CLR,,0.00,WeatherDisplay:10.37,2013-05-24 21:36:00,
2013-05-24 16:37:00,70.0,47.7,30.24,West,270,4.5,9.2,45,0.00,CLR,,0.00,WeatherDisplay:10.37,2013-05-24 21:37:00,
2013-05-24 16:38:00,71.0,46.7,30.24,East,90,10.7,17.0,42,0.00,CLR,,0.00,WeatherDisplay:10.37,2013-05-24 21:38:00,
2013-05-24 16:39:00,71.0,46.7,30.24,East,90,10.6,16.1,42,0.00,CLR,,0.00,WeatherDisplay:10.37,2013-05-24 21:39:00,
2013-05-24 16:40:00,71.0,47.4,30.24,East,90,6.9,18.4,43,0.00,CLR,,0.00,WeatherDisplay:10.37,2013-05-24 21:40:00,
2013-05-24 16:41:00,71.0,48.0,30.24,ESE,112,6.4,12.7,44,0.00,CLR,,0.00,WeatherDisplay:10.37,2013-05-24 21:41:00,
2013-05-24 16:42:00,71.0,48.6,30.24,SSW,202,7.0,11.5,45,0.00,CLR,,0.00,WeatherDisplay:10.37,2013-05-24 21:42:00,
2013-05-24 16:43:00,71.0,49.2,30.24,ENE,67,8.6,13.8,46,0.00,CLR,,0.00,WeatherDisplay:10.37,2013-05-24 21:43:00,
2013-05-24 16:44:00,71.0,49.2,30.24,East,90,8.4,13.8,46,0.00,CLR,,0.00,WeatherDisplay:10.37,2013-05-24 21:44:00,
2013-05-24 16:45:00,71.0,49.2,30.23,ESE,112,7.9,13.8,46,0.00,CLR,,0.00,WeatherDisplay:10.37,2013-05-24 21:45:00,
2013-05-24 16:46:00,70.0,47.7,30.23,SE,135,7.7,15.0,45,0.00,CLR,,0.00,WeatherDisplay:10.37,2013-05-24 21:46:00,
2013-05-24 16:47:00,71.0,49.2,30.23,East,90,7.2,11.5,46,0.00,CLR,,0.00,WeatherDisplay:10.37,2013-05-24 21:47:00,
2013-05-24 16:48:00,71.0,48.6,30.23,ESE,112,11.2,20.7,45,0.00,CLR,,0.00,WeatherDisplay:10.37,2013-05-24 21:48:00,
2013-05-24 16:49:00,71.0,48.6,30.23,SSE,157,9.6,20.7,45,0.00,CLR,,0.00,WeatherDisplay:10.37,2013-05-24 21:49:00,
2013-05-24 16:50:00,71.0,47.4,30.23,ENE,67,10.2,18.4,43,0.00,CLR,,0.00,WeatherDisplay:10.37,2013-05-24 21:50:00,
2013-05-24 16:51:00,72.0,49.5,30.23,SE,135,4.4,12.0,45,0.00,CLR,,0.00,WeatherDisplay:10.37,2013-05-24 21:51:00,
2013-05-24 16:52:00,72.0,48.3,30.23,SSE,157,10.8,16.1,43,0.00,CLR,,0.00,WeatherDisplay:10.37,2013-05-24 21:52:00,
2013-05-24 16:53:00,73.0,48.5,30.23,SSE,157,8.3,17.3,42,0.00,CLR,,0.00,WeatherDisplay:10.37,2013-05-24 21:53:00,
2013-05-24 16:54:00,73.0,48.5,30.23,NNE,22,8.6,17.3,42,0.00,CLR,,0.00,WeatherDisplay:10.37,2013-05-24 21:54:00,
2013-05-24 16:55:00,73.0,47.9,30.21,ESE,112,6.2,17.3,41,0.00,CLR,,0.00,WeatherDisplay:10.37,2013-05-24 21:55:00,
2013-05-24 16:56:00,73.0,48.5,30.21,South,180,6.0,13.0,42,0.00,CLR,,0.00,WeatherDisplay:10.37,2013-05-24 21:56:00,
2013-05-24 16:57:00,73.0,47.9,30.21,SSW,202,8.0,16.1,41,0.00,CLR,,0.00,WeatherDisplay:10.37,2013-05-24 21:57:00,
2013-05-24 16:59:00,73.0,48.5,30.21,SE,135,10.1,21.9,42,0.00,CLR,,0.00,WeatherDisplay:10.37,2013-05-24 21:59:00,
2013-05-24 17:00:00,73.0,49.2,30.21,SSE,157,7.9,12.7,43,0.00,CLR,,0.00,WeatherDisplay:10.37,2013-05-24 22:00:00,
2013-05-24 17:01:00,73.0,48.5,30.21,SE,135,8.3,11.5,42,0.00,CLR,,0.00,WeatherDisplay:10.37,2013-05-24 22:01:00,
2013-05-24 17:02:00,72.0,47.0,30.21,ESE,112,10.2,19.0,41,0.00,CLR,,0.00,WeatherDisplay:10.37,2013-05-24 22:02:00,
2013-05-24 17:04:00,72.0,48.3,30.21,SE,135,10.1,19.6,43,0.00,CLR,,0.00,WeatherDisplay:10.37,2013-05-24 22:04:00,
2013-05-24 17:05:00,72.0,48.3,30.20,South,180,5.2,11.5,43,0.00,CLR,,0.00,WeatherDisplay:10.37,2013-05-24 22:05:00,
2013-05-24 17:07:00,72.0,47.6,30.20,SE,135,9.7,15.0,42,0.00,CLR,,0.00,WeatherDisplay:10.37,2013-05-24 22:07:00,
2013-05-24 17:08:00,72.0,47.0,30.20,East,90,7.9,17.3,41,0.00,CLR,,0.00,WeatherDisplay:10.37,2013-05-24 22:08:00,
2013-05-24 17:09:00,72.0,47.6,30.20,East,90,9.5,17.3,42,0.00,CLR,,0.00,WeatherDisplay:10.37,2013-05-24 22:09:00,
2013-05-24 17:10:00,72.0,48.3,30.20,ENE,67,4.4,11.5,43,0.00,CLR,,0.00,WeatherDisplay:10.37,2013-05-24 22:10:00,
2013-05-24 17:12:00,72.0,48.3,30.20,East,90,7.9,13.8,43,0.00,CLR,,0.00,WeatherDisplay:10.37,2013-05-24 22:12:00,
2013-05-24 17:13:00,72.0,49.5,30.20,East,90,6.0,15.0,45,0.00,CLR,,0.00,WeatherDisplay:10.37,2013-05-24 22:13:00,
2013-05-24 17:14:00,72.0,48.3,30.20,ESE,112,7.0,11.5,43,0.00,CLR,,0.00,WeatherDisplay:10.37,2013-05-24 22:14:00,
2013-05-24 17:15:00,72.0,47.6,30.19,East,90,7.8,11.5,42,0.00,CLR,,0.00,WeatherDisplay:10.37,2013-05-24 22:15:00,
2013-05-24 17:17:00,71.0,47.4,30.19,SSE,157,7.6,15.0,43,0.00,CLR,,0.00,WeatherDisplay:10.37,2013-05-24 22:17:00,
2013-05-24 17:18:00,71.0,47.4,30.19,SSE,157,7.9,12.7,43,0.00,CLR,,0.00,WeatherDisplay:10.37,2013-05-24 22:18:00,
2013-05-24 17:19:00,71.0,47.4,30.19,ESE,112,8.9,13.8,43,0.00,CLR,,0.00,WeatherDisplay:10.37,2013-05-24 22:19:00,
2013-05-24 17:20:00,71.0,47.4,30.19,ESE,112,8.7,13.8,43,0.00,CLR,,0.00,WeatherDisplay:10.37,2013-05-24 22:20:00,
2013-05-24 17:21:00,72.0,48.3,30.19,SSE,157,8.8,17.3,43,0.00,CLR,,0.00,WeatherDisplay:10.37,2013-05-24 22:21:00,
2013-05-24 17:22:00,72.0,48.9,30.19,SSE,157,9.7,19.6,44,0.00,CLR,,0.00,WeatherDisplay:10.37,2013-05-24 22:22:00,
2013-05-24 17:23:00,72.0,48.3,30.19,SSE,157,11.7,16.1,43,0.00,CLR,,0.00,WeatherDisplay:10.37,2013-05-24 22:23:00,
2013-05-24 17:25:00,72.0,48.3,30.20,ESE,112,3.9,18.4,43,0.00,CLR,,0.00,WeatherDisplay:10.37,2013-05-24 22:25:00,
2013-05-24 17:26:00,72.0,48.3,30.20,SSE,157,5.9,11.5,43,0.00,CLR,,0.00,WeatherDisplay:10.37,2013-05-24 22:26:00,
2013-05-24 17:27:00,72.0,48.3,30.20,SE,135,7.3,16.1,43,0.00,CLR,,0.00,WeatherDisplay:10.37,2013-05-24 22:27:00,
2013-05-24 17:29:00,72.0,48.3,30.20,ENE,67,8.2,15.0,43,0.00,CLR,,0.00,WeatherDisplay:10.37,2013-05-24 22:29:00,
2013-05-24 17:30:00,72.0,48.3,30.20,SSE,157,9.1,15.0,43,0.00,CLR,,0.00,WeatherDisplay:10.37,2013-05-24 22:30:00,
2013-05-24 17:32:00,72.0,48.9,30.20,ESE,112,7.9,12.7,44,0.00,CLR,,0.00,WeatherDisplay:10.37,2013-05-24 22:32:00,
2013-05-24 17:34:00,72.0,49.5,30.20,SSW,202,8.9,16.1,45,0.00,CLR,,0.00,WeatherDisplay:10.37,2013-05-24 22:34:00,
2013-05-24 17:35:00,72.0,49.5,30.20,SSE,157,7.7,16.1,45,0.00,CLR,,0.00,WeatherDisplay:10.37,2013-05-24 22:35:00,
2013-05-24 17:37:00,72.0,48.9,30.20,ESE,112,6.0,10.4,44,0.00,CLR,,0.00,WeatherDisplay:10.37,2013-05-24 22:37:00,
2013-05-24 17:38:00,72.0,48.3,30.20,East,90,3.7,10.4,43,0.00,CLR,,0.00,WeatherDisplay:10.37,2013-05-24 22:38:00,
2013-05-24 17:39:00,72.0,48.3,30.20,SSE,157,4.0,6.9,43,0.00,CLR,,0.00,WeatherDisplay:10.37,2013-05-24 22:39:00,
2013-05-24 17:40:00,72.0,48.3,30.20,ENE,67,6.3,9.0,43,0.00,CLR,,0.00,WeatherDisplay:10.37,2013-05-24 22:40:00,
2013-05-24 17:42:00,72.0,48.3,30.20,SE,135,5.8,11.5,43,0.00,CLR,,0.00,WeatherDisplay:10.37,2013-05-24 22:42:00,
2013-05-24 17:43:00,72.0,49.5,30.20,South,180,6.0,9.2,45,0.00,CLR,,0.00,WeatherDisplay:10.37,2013-05-24 22:43:00,
2013-05-24 17:45:00,73.0,49.8,30.19,SW,225,6.3,11.5,44,0.00,CLR,,0.00,WeatherDisplay:10.37,2013-05-24 22:45:00,
2013-05-24 17:46:00,73.0,47.9,30.19,SE,135,8.0,13.8,41,0.00,CLR,,0.00,WeatherDisplay:10.37,2013-05-24 22:46:00,
2013-05-24 17:47:00,73.0,49.2,30.19,SSE,157,5.8,13.8,43,0.00,CLR,,0.00,WeatherDisplay:10.37,2013-05-24 22:47:00,
2013-05-24 17:48:00,73.0,49.2,30.19,ESE,112,5.0,11.0,43,0.00,CLR,,0.00,WeatherDisplay:10.37,2013-05-24 22:48:00,
2013-05-24 17:50:00,72.0,48.3,30.19,SSE,157,5.9,17.3,43,0.00,CLR,,0.00,WeatherDisplay:10.37,2013-05-24 22:50:00,
2013-05-24 17:51:00,72.0,48.3,30.19,ESE,112,8.5,17.3,43,0.00,CLR,,0.00,WeatherDisplay:10.37,2013-05-24 22:51:00,
2013-05-24 17:52:00,72.0,48.3,30.19,SSW,202,6.7,12.7,43,0.00,CLR,,0.00,WeatherDisplay:10.37,2013-05-24 22:52:00,
2013-05-24 17:53:00,72.0,48.3,30.19,SSW,202,5.3,12.7,43,0.00,CLR,,0.00,WeatherDisplay:10.37,2013-05-24 22:53:00,
2013-05-24 17:54:00,72.0,48.3,30.19,ENE,67,4.9,6.9,43,0.00,CLR,,0.00,WeatherDisplay:10.37,2013-05-24 22:54:00,
2013-05-24 17:56:00,72.0,48.3,30.19,SW,225,6.2,13.8,43,0.00,CLR,,0.00,WeatherDisplay:10.37,2013-05-24 22:56:00,
2013-05-24 17:58:00,72.0,48.3,30.19,SSE,157,5.7,11.5,43,0.00,CLR,,0.00,WeatherDisplay:10.37,2013-05-24 22:58:00,
2013-05-24 17:59:00,72.0,48.9,30.19,SW,225,6.3,10.4,44,0.00,CLR,,0.00,WeatherDisplay:10.37,2013-05-24 22:59:00,
2013-05-24 18:01:00,72.0,49.5,30.19,East,90,4.4,18.4,45,0.00,CLR,,0.00,WeatherDisplay:10.37,2013-05-24 23:01:00,
2013-05-24 18:03:00,72.0,48.3,30.19,SE,135,12.0,12.0,43,0.00,CLR,,0.00,WeatherDisplay:10.37,2013-05-24 23:03:00,
2013-05-24 18:04:00,72.0,48.3,30.19,ESE,112,8.6,24.2,43,0.00,CLR,,0.00,WeatherDisplay:10.37,2013-05-24 23:04:00,
2013-05-24 18:06:00,72.0,48.3,30.19,ESE,112,8.8,10.4,43,0.00,CLR,,0.00,WeatherDisplay:10.37,2013-05-24 23:06:00,
2013-05-24 18:07:00,72.0,48.3,30.19,ENE,67,7.7,12.0,43,0.00,CLR,,0.00,WeatherDisplay:10.37,2013-05-24 23:07:00,
2013-05-24 18:08:00,72.0,49.5,30.19,SSE,157,5.4,10.4,45,0.00,CLR,,0.00,WeatherDisplay:10.37,2013-05-24 23:08:00,
2013-05-24 18:09:00,72.0,49.5,30.19,SE,135,7.3,11.5,45,0.00,CLR,,0.00,WeatherDisplay:10.37,2013-05-24 23:09:00,
2013-05-24 18:11:00,72.0,48.3,30.19,NE,45,9.0,12.7,43,0.00,CLR,,0.00,WeatherDisplay:10.37,2013-05-24 23:11:00,
2013-05-24 18:12:00,72.0,48.3,30.19,SSE,157,6.7,15.0,43,0.00,CLR,,0.00,WeatherDisplay:10.37,2013-05-24 23:12:00,
2013-05-24 18:13:00,72.0,48.3,30.19,SE,135,10.6,19.6,43,0.00,CLR,,0.00,WeatherDisplay:10.37,2013-05-24 23:13:00,
2013-05-24 18:14:00,72.0,48.3,30.18,SSE,157,8.2,16.1,43,0.00,CLR,,0.00,WeatherDisplay:10.37,2013-05-24 23:14:00,
2013-05-24 18:16:00,72.0,48.3,30.18,SSE,157,10.8,16.1,43,0.00,CLR,,0.00,WeatherDisplay:10.37,2013-05-24 23:16:00,
2013-05-24 18:17:00,72.0,48.3,30.18,ENE,67,7.8,16.1,43,0.00,CLR,,0.00,WeatherDisplay:10.37,2013-05-24 23:17:00,
2013-05-24 18:18:00,72.0,48.9,30.18,ESE,112,4.1,10.0,44,0.00,CLR,,0.00,WeatherDisplay:10.37,2013-05-24 23:18:00,
2013-05-24 18:20:00,72.0,48.9,30.18,SSE,157,5.6,10.4,44,0.00,CLR,,0.00,WeatherDisplay:10.37,2013-05-24 23:20:00,
2013-05-24 18:21:00,72.0,48.9,30.18,SW,225,3.2,4.6,44,0.00,CLR,,0.00,WeatherDisplay:10.37,2013-05-24 23:21:00,
2013-05-24 18:22:00,73.0,49.2,30.18,ESE,112,4.9,7.0,43,0.00,CLR,,0.00,WeatherDisplay:10.37,2013-05-24 23:22:00,
2013-05-24 18:24:00,73.0,49.2,30.18,East,90,5.6,12.7,43,0.00,CLR,,0.00,WeatherDisplay:10.37,2013-05-24 23:24:00,
2013-05-24 18:25:00,73.0,49.2,30.17,NNE,22,6.0,11.5,43,0.00,CLR,,0.00,WeatherDisplay:10.37,2013-05-24 23:25:00,
2013-05-24 18:27:00,73.0,47.9,30.17,SSE,157,7.1,17.0,41,0.00,CLR,,0.00,WeatherDisplay:10.37,2013-05-24 23:27:00,
2013-05-24 18:29:00,72.0,47.0,30.17,SE,135,12.4,20.7,41,0.00,CLR,,0.00,WeatherDisplay:10.37,2013-05-24 23:29:00,
2013-05-24 18:30:00,72.0,47.6,30.17,SSW,202,9.7,17.3,42,0.00,CLR,,0.00,WeatherDisplay:10.37,2013-05-24 23:30:00,
2013-05-24 18:32:00,72.0,48.3,30.17,ESE,112,1.6,4.6,43,0.00,CLR,,0.00,WeatherDisplay:10.37,2013-05-24 23:32:00,
2013-05-24 18:34:00,72.0,48.9,30.17,ESE,112,3.3,15.0,44,0.00,CLR,,0.00,WeatherDisplay:10.37,2013-05-24 23:34:00,
2013-05-24 18:36:00,72.0,48.3,30.16,SSE,157,3.7,6.9,43,0.00,CLR,,0.00,WeatherDisplay:10.37,2013-05-24 23:36:00,
2013-05-24 18:37:00,72.0,47.6,30.16,SSE,157,3.2,10.4,42,0.00,CLR,,0.00,WeatherDisplay:10.37,2013-05-24 23:37:00,
2013-05-24 18:38:00,72.0,47.6,30.16,East,90,6.1,10.4,42,0.00,CLR,,0.00,WeatherDisplay:10.37,2013-05-24 23:38:00,
2013-05-24 18:39:00,72.0,47.6,30.16,WSW,247,4.4,10.4,42,0.00,CLR,,0.00,WeatherDisplay:10.37,2013-05-24 23:39:00,
2013-05-24 18:41:00,72.0,48.3,30.16,ESE,112,5.2,17.3,43,0.00,CLR,,0.00,WeatherDisplay:10.37,2013-05-24 23:41:00,
2013-05-24 18:42:00,72.0,48.3,30.16,ENE,67,7.0,10.4,43,0.00,CLR,,0.00,WeatherDisplay:10.37,2013-05-24 23:42:00,
2013-05-24 18:43:00,72.0,48.3,30.16,East,90,6.5,10.4,43,0.00,CLR,,0.00,WeatherDisplay:10.37,2013-05-24 23:43:00,
2013-05-24 18:44:00,72.0,48.3,30.16,East,90,7.9,10.0,43,0.00,CLR,,0.00,WeatherDisplay:10.37,2013-05-24 23:44:00,
2013-05-24 18:45:00,73.0,48.5,30.15,East,90,7.8,11.5,42,0.00,CLR,,0.00,WeatherDisplay:10.37,2013-05-24 23:45:00,
2013-05-24 18:46:00,72.0,48.3,30.15,South,180,5.4,14.0,43,0.00,CLR,,0.00,WeatherDisplay:10.37,2013-05-24 23:46:00,
2013-05-24 18:48:00,72.0,48.3,30.15,SE,135,8.3,18.4,43,0.00,CLR,,0.00,WeatherDisplay:10.37,2013-05-24 23:48:00,
2013-05-24 18:49:00,72.0,48.3,30.15,East,90,6.4,12.7,43,0.00,CLR,,0.00,WeatherDisplay:10.37,2013-05-24 23:49:00,
2013-05-24 18:51:00,72.0,47.6,30.15,ESE,112,8.0,11.5,42,0.00,CLR,,0.00,WeatherDisplay:10.37,2013-05-24 23:51:00,
2013-05-24 18:53:00,72.0,47.6,30.15,SE,135,7.5,17.3,42,0.00,CLR,,0.00,WeatherDisplay:10.37,2013-05-24 23:53:00,
2013-05-24 18:55:00,72.0,47.0,30.14,East,90,8.6,21.9,41,0.00,CLR,,0.00,WeatherDisplay:10.37,2013-05-24 23:55:00,
2013-05-24 18:56:00,72.0,47.0,30.14,ENE,67,5.4,16.1,41,0.00,CLR,,0.00,WeatherDisplay:10.37,2013-05-24 23:56:00,
2013-05-24 18:58:00,72.0,47.6,30.14,ESE,112,4.2,8.0,42,0.00,CLR,,0.00,WeatherDisplay:10.37,2013-05-24 23:58:00,
2013-05-24 18:59:00,72.0,47.0,30.14,SSE,157,8.8,19.0,41,0.00,CLR,,0.00,WeatherDisplay:10.37,2013-05-24 23:59:00,
2013-05-24 19:00:00,72.0,47.6,30.14,SE,135,6.5,11.5,42,0.00,CLR,,0.00,WeatherDisplay:10.37,2013-05-25 00:00:00,
2013-05-24 19:01:00,72.0,47.6,30.14,East,90,5.8,11.5,42,0.00,CLR,,0.00,WeatherDisplay:10.37,2013-05-25 00:01:00,
2013-05-24 19:04:00,72.0,47.0,30.14,SSE,157,5.1,12.7,41,0.00,CLR,,0.00,WeatherDisplay:10.37,2013-05-25 00:04:00,
2013-05-24 19:05:00,72.0,47.0,30.15,East,90,11.3,18.4,41,0.00,CLR,,0.00,WeatherDisplay:10.37,2013-05-25 00:05:00,
2013-05-24 19:06:00,72.0,47.0,30.15,ESE,112,6.4,18.4,41,0.00,CLR,,0.00,WeatherDisplay:10.37,2013-05-25 00:06:00,
2013-05-24 19:07:00,72.0,47.0,30.15,ESE,112,12.0,17.3,41,0.00,CLR,,0.00,WeatherDisplay:10.37,2013-05-25 00:07:00,
2013-05-24 19:09:00,72.0,47.6,30.15,SE,135,11.0,23.0,42,0.00,CLR,,0.00,WeatherDisplay:10.37,2013-05-25 00:09:00,
2013-05-24 19:10:00,72.0,47.0,30.15,SE,135,8.6,18.4,41,0.00,CLR,,0.00,WeatherDisplay:10.37,2013-05-25 00:10:00,
2013-05-24 19:11:00,72.0,47.0,30.15,East,90,8.4,18.4,41,0.00,CLR,,0.00,WeatherDisplay:10.37,2013-05-25 00:11:00,
2013-05-24 19:12:00,72.0,48.3,30.15,ESE,112,4.2,9.2,43,0.00,CLR,,0.00,WeatherDisplay:10.37,2013-05-25 00:12:00,
2013-05-24 19:14:00,72.0,48.3,30.15,SSE,157,6.0,10.4,43,0.00,CLR,,0.00,WeatherDisplay:10.37,2013-05-25 00:14:00,
2013-05-24 19:15:00,72.0,47.0,30.15,SSE,157,4.4,12.0,41,0.00,CLR,,0.00,WeatherDisplay:10.37,2013-05-25 00:15:00,
2013-05-24 19:17:00,71.0,46.1,30.15,SSE,157,7.8,12.7,41,0.00,CLR,,0.00,WeatherDisplay:10.37,2013-05-25 00:17:00,
2013-05-24 19:19:00,71.0,47.4,30.15,East,90,3.4,11.5,43,0.00,CLR,,0.00,WeatherDisplay:10.37,2013-05-25 00:19:00,
2013-05-24 19:20:00,71.0,46.7,30.15,SSE,157,4.8,10.4,42,0.00,CLR,,0.00,WeatherDisplay:10.37,2013-05-25 00:20:00,
2013-05-24 19:21:00,71.0,46.7,30.15,East,90,3.1,10.4,42,0.00,CLR,,0.00,WeatherDisplay:10.37,2013-05-25 00:21:00,
2013-05-24 19:22:00,71.0,46.7,30.15,SSE,157,8.1,17.3,42,0.00,CLR,,0.00,WeatherDisplay:10.37,2013-05-25 00:22:00,
2013-05-24 19:25:00,71.0,47.4,30.15,SE,135,8.2,16.1,43,0.00,CLR,,0.00,WeatherDisplay:10.37,2013-05-25 00:25:00,
2013-05-24 19:26:00,71.0,48.0,30.15,ESE,112,4.2,8.1,44,0.00,CLR,,0.00,WeatherDisplay:10.37,2013-05-25 00:26:00,
2013-05-24 19:27:00,71.0,47.4,30.15,East,90,4.8,6.9,43,0.00,CLR,,0.00,WeatherDisplay:10.37,2013-05-25 00:27:00,
2013-05-24 19:28:00,71.0,47.4,30.15,South,180,4.9,11.5,43,0.00,CLR,,0.00,WeatherDisplay:10.37,2013-05-25 00:28:00,
2013-05-24 19:30:00,71.0,48.0,30.15,WSW,247,6.1,9.2,44,0.00,CLR,,0.00,WeatherDisplay:10.37,2013-05-25 00:30:00,
2013-05-24 19:31:00,71.0,47.4,30.15,SSE,157,7.6,11.0,43,0.00,CLR,,0.00,WeatherDisplay:10.37,2013-05-25 00:31:00,
2013-05-24 19:32:00,71.0,47.4,30.15,ESE,112,9.3,12.7,43,0.00,CLR,,0.00,WeatherDisplay:10.37,2013-05-25 00:32:00,
2013-05-24 19:33:00,71.0,47.4,30.15,SE,135,6.8,12.7,43,0.00,CLR,,0.00,WeatherDisplay:10.37,2013-05-25 00:33:00,
2013-05-24 19:35:00,71.0,47.4,30.16,ESE,112,6.1,12.7,43,0.00,CLR,,0.00,WeatherDisplay:10.37,2013-05-25 00:35:00,
2013-05-24 19:36:00,71.0,47.4,30.16,ESE,112,6.5,11.5,43,0.00,CLR,,0.00,WeatherDisplay:10.37,2013-05-25 00:36:00,
2013-05-24 19:38:00,71.0,47.4,30.16,SSE,157,6.3,11.5,43,0.00,CLR,,0.00,WeatherDisplay:10.37,2013-05-25 00:38:00,
2013-05-24 19:40:00,71.0,47.4,30.16,ESE,112,6.1,19.6,43,0.00,CLR,,0.00,WeatherDisplay:10.37,2013-05-25 00:40:00,
2013-05-24 19:41:00,71.0,47.4,30.16,ENE,67,6.2,11.5,43,0.00,CLR,,0.00,WeatherDisplay:10.37,2013-05-25 00:41:00,
2013-05-24 19:43:00,71.0,47.4,30.16,SE,135,7.8,15.0,43,0.00,CLR,,0.00,WeatherDisplay:10.37,2013-05-25 00:43:00,
2013-05-24 19:45:00,71.0,47.4,30.17,SE,135,5.3,10.4,43,0.00,CLR,,0.00,WeatherDisplay:10.37,2013-05-25 00:45:00,
2013-05-24 19:46:00,70.0,46.5,30.17,SSW,202,8.9,10.4,43,0.00,CLR,,0.00,WeatherDisplay:10.37,2013-05-25 00:46:00,
2013-05-24 19:48:00,70.0,46.5,30.17,ENE,67,5.5,12.7,43,0.00,CLR,,0.00,WeatherDisplay:10.37,2013-05-25 00:48:00,
2013-05-24 19:49:00,70.0,47.1,30.17,East,90,6.4,12.7,44,0.00,CLR,,0.00,WeatherDisplay:10.37,2013-05-25 00:49:00,
2013-05-24 19:50:00,70.0,46.5,30.17,South,180,7.0,11.5,43,0.00,CLR,,0.00,WeatherDisplay:10.37,2013-05-25 00:50:00,
2013-05-24 19:51:00,70.0,46.5,30.17,ESE,112,5.6,13.8,43,0.00,CLR,,0.00,WeatherDisplay:10.37,2013-05-25 00:51:00,
2013-05-24 19:52:00,70.0,47.1,30.17,East,90,9.1,13.8,44,0.00,CLR,,0.00,WeatherDisplay:10.37,2013-05-25 00:52:00,
2013-05-24 19:53:00,70.0,47.1,30.17,SSE,157,8.3,13.8,44,0.00,CLR,,0.00,WeatherDisplay:10.37,2013-05-25 00:53:00,
2013-05-24 19:54:00,70.0,47.1,30.17,South,180,5.9,13.8,44,0.00,CLR,,0.00,WeatherDisplay:10.37,2013-05-25 00:54:00,
2013-05-24 19:55:00,70.0,46.5,30.18,SSE,157,6.4,11.5,43,0.00,CLR,,0.00,WeatherDisplay:10.37,2013-05-25 00:55:00,
2013-05-24 19:56:00,70.0,47.1,30.18,SE,135,5.4,8.1,44,0.00,CLR,,0.00,WeatherDisplay:10.37,2013-05-25 00:56:00,
2013-05-24 19:57:00,70.0,47.1,30.18,SSE,157,5.7,8.1,44,0.00,CLR,,0.00,WeatherDisplay:10.37,2013-05-25 00:57:00,
2013-05-24 19:58:00,70.0,47.1,30.18,SE,135,4.3,8.0,44,0.00,CLR,,0.00,WeatherDisplay:10.37,2013-05-25 00:58:00,
2013-05-24 19:59:00,70.0,47.1,30.18,ESE,112,6.9,6.9,44,0.00,CLR,,0.00,WeatherDisplay:10.37,2013-05-25 00:59:00,
2013-05-24 20:00:00,70.0,47.7,30.18,ESE,112,5.3,6.9,45,0.00,CLR,,0.00,WeatherDisplay:10.37,2013-05-25 01:00:00,
2013-05-24 20:01:00,70.0,47.7,30.18,ENE,67,6.5,10.0,45,0.00,CLR,,0.00,WeatherDisplay:10.37,2013-05-25 01:01:00,
2013-05-24 20:02:00,70.0,47.7,30.18,SSW,202,5.8,10.4,45,0.00,CLR,,0.00,WeatherDisplay:10.37,2013-05-25 01:02:00,
2013-05-24 20:04:00,70.0,47.7,30.18,East,90,4.4,8.1,45,0.00,CLR,,0.00,WeatherDisplay:10.37,2013-05-25 01:04:00,
2013-05-24 20:05:00,70.0,47.7,30.18,SSE,157,3.8,8.1,45,0.00,CLR,,0.00,WeatherDisplay:10.37,2013-05-25 01:05:00,
2013-05-24 20:06:00,70.0,47.7,30.18,ESE,112,4.0,11.5,45,0.00,CLR,,0.00,WeatherDisplay:10.37,2013-05-25 01:06:00,
2013-05-24 20:07:00,69.0,46.8,30.18,ESE,112,4.0,11.5,45,0.00,CLR,,0.00,WeatherDisplay:10.37,2013-05-25 01:07:00,
2013-05-24 20:09:00,69.0,47.4,30.18,ESE,112,3.4,4.6,46,0.00,CLR,,0.00,WeatherDisplay:10.37,2013-05-25 01:09:00,
2013-05-24 20:10:00,69.0,47.4,30.18,ESE,112,3.3,4.6,46,0.00,CLR,,0.00,WeatherDisplay:10.37,2013-05-25 01:10:00,
2013-05-24 20:11:00,69.0,47.4,30.18,ESE,112,3.3,5.8,46,0.00,CLR,,0.00,WeatherDisplay:10.37,2013-05-25 01:11:00,
2013-05-24 20:13:00,69.0,47.4,30.18,ESE,112,4.9,11.5,46,0.00,CLR,,0.00,WeatherDisplay:10.37,2013-05-25 01:13:00,
2013-05-24 20:14:00,69.0,47.4,30.18,SE,135,4.9,9.2,46,0.00,CLR,,0.00,WeatherDisplay:10.37,2013-05-25 01:14:00,
2013-05-24 20:15:00,69.0,47.4,30.19,SE,135,2.0,9.2,46,0.00,CLR,,0.00,WeatherDisplay:10.37,2013-05-25 01:15:00,
2013-05-24 20:17:00,69.0,47.4,30.19,SSE,157,4.2,5.8,46,0.00,CLR,,0.00,WeatherDisplay:10.37,2013-05-25 01:17:00,
2013-05-24 20:18:00,69.0,47.9,30.19,ESE,112,3.5,8.1,47,0.00,CLR,,0.00,WeatherDisplay:10.37,2013-05-25 01:18:00,
2013-05-24 20:19:00,69.0,47.4,30.19,South,180,6.7,10.4,46,0.00,CLR,,0.00,WeatherDisplay:10.37,2013-05-25 01:19:00,
2013-05-24 20:20:00,69.0,47.4,30.19,ESE,112,4.8,8.1,46,0.00,CLR,,0.00,WeatherDisplay:10.37,2013-05-25 01:20:00,
2013-05-24 20:21:00,69.0,47.4,30.19,South,180,4.6,8.1,46,0.00,CLR,,0.00,WeatherDisplay:10.37,2013-05-25 01:21:00,
2013-05-24 20:22:00,68.0,46.4,30.19,East,90,4.8,9.2,46,0.00,CLR,,0.00,WeatherDisplay:10.37,2013-05-25 01:22:00,
2013-05-24 20:23:00,68.0,46.4,30.19,ESE,112,2.9,7.0,46,0.00,CLR,,0.00,WeatherDisplay:10.37,2013-05-25 01:23:00,
2013-05-24 20:25:00,69.0,47.4,30.20,SE,135,8.1,11.5,46,0.00,CLR,,0.00,WeatherDisplay:10.37,2013-05-25 01:25:00,
2013-05-24 20:26:00,68.0,47.0,30.20,ESE,112,5.7,11.5,47,0.00,CLR,,0.00,WeatherDisplay:10.37,2013-05-25 01:26:00,
2013-05-24 20:27:00,68.0,46.4,30.20,East,90,4.1,10.4,46,0.00,CLR,,0.00,WeatherDisplay:10.37,2013-05-25 01:27:00,
2013-05-24 20:28:00,68.0,47.0,30.20,SE,135,5.1,8.0,47,0.00,CLR,,0.00,WeatherDisplay:10.37,2013-05-25 01:28:00,
2013-05-24 20:30:00,68.0,47.6,30.20,East,90,5.3,9.2,48,0.00,CLR,,0.00,WeatherDisplay:10.37,2013-05-25 01:30:00,
2013-05-24 20:31:00,68.0,47.6,30.20,ESE,112,4.7,5.8,48,0.00,CLR,,0.00,WeatherDisplay:10.37,2013-05-25 01:31:00,
2013-05-24 20:32:00,68.0,47.0,30.20,ESE,112,6.1,10.4,47,0.00,CLR,,0.00,WeatherDisplay:10.37,2013-05-25 01:32:00,
2013-05-24 20:34:00,68.0,47.0,30.20,SSE,157,4.8,9.0,47,0.00,CLR,,0.00,WeatherDisplay:10.37,2013-05-25 01:34:00,
2013-05-24 20:35:00,68.0,47.6,30.20,SW,225,3.6,8.1,48,0.00,CLR,,0.00,WeatherDisplay:10.37,2013-05-25 01:35:00,
2013-05-24 20:36:00,68.0,47.6,30.20,SSE,157,3.5,8.1,48,0.00,CLR,,0.00,WeatherDisplay:10.37,2013-05-25 01:36:00,
2013-05-24 20:37:00,68.0,47.6,30.20,East,90,6.1,10.4,48,0.00,CLR,,0.00,WeatherDisplay:10.37,2013-05-25 01:37:00,
2013-05-24 20:39:00,68.0,47.6,30.20,ESE,112,8.0,14.0,48,0.00,CLR,,0.00,WeatherDisplay:10.37,2013-05-25 01:39:00,
2013-05-24 20:40:00,68.0,47.6,30.20,East,90,5.5,12.7,48,0.00,CLR,,0.00,WeatherDisplay:10.37,2013-05-25 01:40:00,
2013-05-24 20:41:00,68.0,47.6,30.20,ESE,112,5.2,7.0,48,0.00,CLR,,0.00,WeatherDisplay:10.37,2013-05-25 01:41:00,
2013-05-24 20:42:00,68.0,47.6,30.20,ESE,112,4.0,8.1,48,0.00,CLR,,0.00,WeatherDisplay:10.37,2013-05-25 01:42:00,
2013-05-24 20:44:00,68.0,47.6,30.20,ESE,112,4.7,6.9,48,0.00,CLR,,0.00,WeatherDisplay:10.37,2013-05-25 01:44:00,
2013-05-24 20:46:00,67.0,46.7,30.21,ENE,67,2.3,5.0,48,0.00,CLR,,0.00,WeatherDisplay:10.37,2013-05-25 01:46:00,
2013-05-24 20:47:00,67.0,46.7,30.21,SSE,157,3.6,6.9,48,0.00,CLR,,0.00,WeatherDisplay:10.37,2013-05-25 01:47:00,
2013-05-24 20:49:00,67.0,46.7,30.21,SE,135,3.4,3.5,48,0.00,CLR,,0.00,WeatherDisplay:10.37,2013-05-25 01:49:00,
2013-05-24 20:51:00,67.0,46.7,30.21,SE,135,5.3,10.4,48,0.00,CLR,,0.00,WeatherDisplay:10.37,2013-05-25 01:51:00,
2013-05-24 20:52:00,67.0,46.7,30.21,ESE,112,4.5,10.4,48,0.00,CLR,,0.00,WeatherDisplay:10.37,2013-05-25 01:52:00,
2013-05-24 20:54:00,67.0,46.7,30.21,SE,135,2.7,5.8,48,0.00,CLR,,0.00,WeatherDisplay:10.37,2013-05-25 01:54:00,
2013-05-24 20:56:00,67.0,46.7,30.22,ESE,112,3.0,5.8,48,0.00,CLR,,0.00,WeatherDisplay:10.37,2013-05-25 01:56:00,
2013-05-24 20:57:00,67.0,46.7,30.22,ESE,112,3.3,5.8,48,0.00,CLR,,0.00,WeatherDisplay:10.37,2013-05-25 01:57:00,
2013-05-24 20:58:00,67.0,47.2,30.22,NNE,22,1.8,4.0,49,0.00,CLR,,0.00,WeatherDisplay:10.37,2013-05-25 01:58:00,
2013-05-24 20:59:00,67.0,46.7,30.22,NNE,22,0.1,1.1,48,0.00,CLR,,0.00,WeatherDisplay:10.37,2013-05-25 01:59:00,
2013-05-24 21:01:00,67.0,47.7,30.22,SSW,202,5.5,6.9,50,0.00,CLR,,0.00,WeatherDisplay:10.37,2013-05-25 02:01:00,
2013-05-24 21:02:00,67.0,47.7,30.22,SSW,202,4.4,6.9,50,0.00,CLR,,0.00,WeatherDisplay:10.37,2013-05-25 02:02:00,
2013-05-24 21:03:00,67.0,47.2,30.22,SE,135,3.5,8.1,49,0.00,CLR,,0.00,WeatherDisplay:10.37,2013-05-25 02:03:00,
2013-05-24 21:04:00,67.0,46.7,30.23,ESE,112,2.1,4.6,48,0.00,CLR,,0.00,WeatherDisplay:10.37,2013-05-25 02:04:00,
2013-05-24 21:06:00,67.0,46.7,30.23,ESE,112,3.9,8.1,48,0.00,CLR,,0.00,WeatherDisplay:10.37,2013-05-25 02:06:00,
2013-05-24 21:07:00,67.0,46.7,30.23,SSE,157,2.6,4.6,48,0.00,CLR,,0.00,WeatherDisplay:10.37,2013-05-25 02:07:00,
2013-05-24 21:08:00,67.0,46.7,30.23,SSW,202,2.2,5.0,48,0.00,CLR,,0.00,WeatherDisplay:10.37,2013-05-25 02:08:00,
2013-05-24 21:09:00,67.0,46.7,30.23,SE,135,3.1,8.1,48,0.00,CLR,,0.00,WeatherDisplay:10.37,2013-05-25 02:09:00,
2013-05-24 21:11:00,67.0,47.2,30.23,SE,135,3.4,4.6,49,0.00,CLR,,0.00,WeatherDisplay:10.37,2013-05-25 02:11:00,
2013-05-24 21:12:00,67.0,47.2,30.23,ESE,112,2.0,4.6,49,0.00,CLR,,0.00,WeatherDisplay:10.37,2013-05-25 02:12:00,
2013-05-24 21:13:00,67.0,47.2,30.23,SE,135,2.2,3.5,49,0.00,CLR,,0.00,WeatherDisplay:10.37,2013-05-25 02:13:00,
2013-05-24 21:15:00,67.0,46.1,30.25,East,90,0.8,3.5,47,0.00,CLR,,0.00,WeatherDisplay:10.37,2013-05-25 02:15:00,
2013-05-24 21:16:00,67.0,46.1,30.25,East,90,5.2,8.0,47,0.00,CLR,,0.00,WeatherDisplay:10.37,2013-05-25 02:16:00,
2013-05-24 21:17:00,67.0,46.7,30.25,SE,135,4.9,8.1,48,0.00,CLR,,0.00,WeatherDisplay:10.37,2013-05-25 02:17:00,
2013-05-24 21:18:00,67.0,47.2,30.25,SE,135,3.9,5.0,49,0.00,CLR,,0.00,WeatherDisplay:10.37,2013-05-25 02:18:00,
2013-05-24 21:19:00,67.0,47.2,30.25,SSE,157,4.0,4.6,49,0.00,CLR,,0.00,WeatherDisplay:10.37,2013-05-25 02:19:00,
2013-05-24 21:20:00,67.0,47.2,30.25,SSE,157,2.4,4.6,49,0.00,CLR,,0.00,WeatherDisplay:10.37,2013-05-25 02:20:00,
2013-05-24 21:22:00,67.0,47.2,30.25,SSE,157,1.2,2.3,49,0.00,CLR,,0.00,WeatherDisplay:10.37,2013-05-25 02:22:00,
2013-05-24 21:23:00,67.0,47.2,30.25,East,90,2.5,4.0,49,0.00,CLR,,0.00,WeatherDisplay:10.37,2013-05-25 02:23:00,
2013-05-24 21:24:00,67.0,47.2,30.25,East,90,2.9,3.5,49,0.00,CLR,,0.00,WeatherDisplay:10.37,2013-05-25 02:24:00,
2013-05-24 21:25:00,67.0,47.2,30.26,East,90,2.9,3.5,49,0.00,CLR,,0.00,WeatherDisplay:10.37,2013-05-25 02:25:00,
2013-05-24 21:27:00,67.0,47.2,30.26,East,90,4.9,7.0,49,0.00,CLR,,0.00,WeatherDisplay:10.37,2013-05-25 02:27:00,
2013-05-24 21:28:00,67.0,47.2,30.26,SE,135,4.9,6.9,49,0.00,CLR,,0.00,WeatherDisplay:10.37,2013-05-25 02:28:00,
2013-05-24 21:29:00,67.0,47.2,30.26,SE,135,2.7,6.9,49,0.00,CLR,,0.00,WeatherDisplay:10.37,2013-05-25 02:29:00,
2013-05-24 21:30:00,67.0,47.2,30.26,ESE,112,3.6,5.8,49,0.00,CLR,,0.00,WeatherDisplay:10.37,2013-05-25 02:30:00,
2013-05-24 21:32:00,67.0,47.2,30.26,ESE,112,2.3,4.6,49,0.00,CLR,,0.00,WeatherDisplay:10.37,2013-05-25 02:32:00,
2013-05-24 21:33:00,67.0,47.2,30.26,SSE,157,3.9,4.6,49,0.00,CLR,,0.00,WeatherDisplay:10.37,2013-05-25 02:33:00,
2013-05-24 21:34:00,67.0,47.2,30.26,ESE,112,3.6,4.6,49,0.00,CLR,,0.00,WeatherDisplay:10.37,2013-05-25 02:34:00,
2013-05-24 21:35:00,67.0,46.7,30.27,ESE,112,3.8,5.0,48,0.00,CLR,,0.00,WeatherDisplay:10.37,2013-05-25 02:35:00,
2013-05-24 21:36:00,67.0,47.2,30.27,ESE,112,4.3,4.6,49,0.00,CLR,,0.00,WeatherDisplay:10.37,2013-05-25 02:36:00,
2013-05-24 21:37:00,67.0,47.7,30.27,ENE,67,2.7,4.6,50,0.00,CLR,,0.00,WeatherDisplay:10.37,2013-05-25 02:37:00,
2013-05-24 21:39:00,67.0,47.2,30.27,ESE,112,0.7,4.0,49,0.00,CLR,,0.00,WeatherDisplay:10.37,2013-05-25 02:39:00,
2013-05-24 21:40:00,67.0,47.7,30.27,ESE,112,1.7,3.5,50,0.00,CLR,,0.00,WeatherDisplay:10.37,2013-05-25 02:40:00,
2013-05-24 21:41:00,67.0,47.2,30.27,ESE,112,0.3,3.5,49,0.00,CLR,,0.00,WeatherDisplay:10.37,2013-05-25 02:41:00,
2013-05-24 21:42:00,67.0,47.7,30.27,ESE,112,1.7,3.5,50,0.00,CLR,,0.00,WeatherDisplay:10.37,2013-05-25 02:42:00,
2013-05-24 21:44:00,67.0,47.7,30.27,ESE,112,0.0,1.1,50,0.00,CLR,,0.00,WeatherDisplay:10.37,2013-05-25 02:44:00,
2013-05-24 21:45:00,67.0,47.2,30.28,ESE,112,1.6,3.0,49,0.00,CLR,,0.00,WeatherDisplay:10.37,2013-05-25 02:45:00,
2013-05-24 21:46:00,67.0,47.7,30.28,East,90,3.5,7.0,50,0.00,CLR,,0.00,WeatherDisplay:10.37,2013-05-25 02:46:00,
2013-05-24 21:47:00,67.0,47.7,30.28,East,90,4.8,6.0,50,0.00,CLR,,0.00,WeatherDisplay:10.37,2013-05-25 02:47:00,
2013-05-24 21:49:00,67.0,47.2,30.28,ESE,112,4.5,5.8,49,0.00,CLR,,0.00,WeatherDisplay:10.37,2013-05-25 02:49:00,
2013-05-24 21:50:00,67.0,47.2,30.28,SE,135,5.4,8.1,49,0.00,CLR,,0.00,WeatherDisplay:10.37,2013-05-25 02:50:00,
2013-05-24 21:51:00,67.0,47.2,30.28,ESE,112,5.1,8.1,49,0.00,CLR,,0.00,WeatherDisplay:10.37,2013-05-25 02:51:00,
2013-05-24 21:52:00,67.0,47.2,30.28,ESE,112,6.6,9.2,49,0.00,CLR,,0.00,WeatherDisplay:10.37,2013-05-25 02:52:00,
2013-05-24 21:54:00,67.0,47.2,30.28,ESE,112,4.8,5.8,49,0.00,CLR,,0.00,WeatherDisplay:10.37,2013-05-25 02:54:00,
2013-05-24 21:55:00,67.0,47.2,30.28,SE,135,4.7,7.0,49,0.00,CLR,,0.00,WeatherDisplay:10.37,2013-05-25 02:55:00,
2013-05-24 21:56:00,67.0,47.7,30.28,ESE,112,4.9,6.9,50,0.00,CLR,,0.00,WeatherDisplay:10.37,2013-05-25 02:56:00,
2013-05-24 21:57:00,67.0,47.7,30.28,ESE,112,4.3,10.4,50,0.00,CLR,,0.00,WeatherDisplay:10.37,2013-05-25 02:57:00,
2013-05-24 21:59:00,67.0,47.2,30.28,ESE,112,4.6,9.2,49,0.00,CLR,,0.00,WeatherDisplay:10.37,2013-05-25 02:59:00,
2013-05-24 22:00:00,67.0,47.7,30.28,ESE,112,3.3,6.9,50,0.00,CLR,,0.00,WeatherDisplay:10.37,2013-05-25 03:00:00,
2013-05-24 22:01:00,67.0,47.7,30.28,SSE,157,5.2,6.9,50,0.00,CLR,,0.00,WeatherDisplay:10.37,2013-05-25 03:01:00,
2013-05-24 22:02:00,67.0,47.7,30.28,East,90,3.3,10.4,50,0.00,CLR,,0.00,WeatherDisplay:10.37,2013-05-25 03:02:00,
2013-05-24 22:04:00,66.0,46.8,30.28,East,90,1.8,4.0,50,0.00,CLR,,0.00,WeatherDisplay:10.37,2013-05-25 03:04:00,
2013-05-24 22:05:00,67.0,47.2,30.29,WSW,247,3.7,8.1,49,0.00,CLR,,0.00,WeatherDisplay:10.37,2013-05-25 03:05:00,
2013-05-24 22:06:00,66.0,46.8,30.29,ESE,112,2.8,8.1,50,0.00,CLR,,0.00,WeatherDisplay:10.37,2013-05-25 03:06:00,
2013-05-24 22:07:00,66.0,46.3,30.29,East,90,5.5,10.4,49,0.00,CLR,,0.00,WeatherDisplay:10.37,2013-05-25 03:07:00,
2013-05-24 22:08:00,66.0,46.8,30.29,East,90,5.6,10.4,50,0.00,CLR,,0.00,WeatherDisplay:10.37,2013-05-25 03:08:00,
2013-05-24 22:09:00,66.0,46.8,30.29,ESE,112,5.5,9.2,50,0.00,CLR,,0.00,WeatherDisplay:10.37,2013-05-25 03:09:00,
2013-05-24 22:10:00,66.0,46.3,30.29,SE,135,6.9,10.4,49,0.00,CLR,,0.00,WeatherDisplay:10.37,2013-05-25 03:10:00,
2013-05-24 22:11:00,66.0,46.8,30.29,ESE,112,3.5,10.4,50,0.00,CLR,,0.00,WeatherDisplay:10.37,2013-05-25 03:11:00,
2013-05-24 22:13:00,66.0,46.8,30.29,ENE,67,6.7,10.4,50,0.00,CLR,,0.00,WeatherDisplay:10.37,2013-05-25 03:13:00,
2013-05-24 22:14:00,66.0,46.3,30.29,ESE,112,6.0,9.2,49,0.00,CLR,,0.00,WeatherDisplay:10.37,2013-05-25 03:14:00,
2013-05-24 22:15:00,66.0,46.3,30.29,ESE,112,6.0,6.0,49,0.00,CLR,,0.00,WeatherDisplay:10.37,2013-05-25 03:15:00,
2013-05-24 22:16:00,66.0,46.3,30.29,ESE,112,6.0,6.0,49,0.00,CLR,,0.00,WeatherDisplay:10.37,2013-05-25 03:16:00,
2013-05-24 22:18:00,66.0,46.3,30.29,ESE,112,6.0,6.0,49,0.00,CLR,,0.00,WeatherDisplay:10.37,2013-05-25 03:18:00,
2013-05-24 22:19:00,66.0,46.3,30.29,ESE,112,6.0,6.0,49,0.00,CLR,,0.00,WeatherDisplay:10.37,2013-05-25 03:19:00,
2013-05-24 22:21:00,66.0,46.3,30.29,ESE,112,6.0,6.0,49,0.00,CLR,,0.00,WeatherDisplay:10.37,2013-05-25 03:21:00,
2013-05-24 22:23:00,66.0,46.3,30.29,ESE,112,6.0,6.0,49,0.00,CLR,,0.00,WeatherDisplay:10.37,2013-05-25 03:23:00,
2013-05-24 22:24:00,66.0,46.3,30.29,ESE,112,6.0,6.0,49,0.00,CLR,,0.00,WeatherDisplay:10.37,2013-05-25 03:24:00,
2013-05-24 22:26:00,66.0,46.3,30.29,ESE,112,6.0,6.0,49,0.00,CLR,,0.00,WeatherDisplay:10.37,2013-05-25 03:26:00,
2013-05-24 22:27:00,66.0,46.3,30.29,ESE,112,6.0,6.0,49,0.00,CLR,,0.00,WeatherDisplay:10.37,2013-05-25 03:27:00,
2013-05-24 22:28:00,66.0,46.3,30.29,ESE,112,6.0,6.0,49,0.00,CLR,,0.00,WeatherDisplay:10.37,2013-05-25 03:28:00,
2013-05-24 22:29:00,66.0,46.3,30.29,ESE,112,6.0,6.0,49,0.00,CLR,,0.00,WeatherDisplay:10.37,2013-05-25 03:29:00,
2013-05-24 22:31:00,66.0,46.3,30.29,ESE,112,6.0,6.0,49,0.00,CLR,,0.00,WeatherDisplay:10.37,2013-05-25 03:31:00,
2013-05-24 22:32:00,66.0,46.3,30.29,ESE,112,6.0,6.0,49,0.00,CLR,,0.00,WeatherDisplay:10.37,2013-05-25 03:32:00,
2013-05-24 22:33:00,66.0,46.3,30.29,ESE,112,6.0,6.0,49,0.00,CLR,,0.00,WeatherDisplay:10.37,2013-05-25 03:33:00,
2013-05-24 22:34:00,66.0,46.3,30.29,ESE,112,6.0,6.0,49,0.00,CLR,,0.00,WeatherDisplay:10.37,2013-05-25 03:34:00,
2013-05-24 22:36:00,66.0,46.3,30.29,ESE,112,6.0,6.0,49,0.00,CLR,,0.00,WeatherDisplay:10.37,2013-05-25 03:36:00,
2013-05-24 22:37:00,66.0,46.3,30.29,ESE,112,6.0,6.0,49,0.00,CLR,,0.00,WeatherDisplay:10.37,2013-05-25 03:37:00,
2013-05-24 22:38:00,66.0,46.3,30.29,ESE,112,6.0,6.0,49,0.00,CLR,,0.00,WeatherDisplay:10.37,2013-05-25 03:38:00,
2013-05-24 22:39:00,66.0,46.3,30.29,ESE,112,6.0,6.0,49,0.00,CLR,,0.00,WeatherDisplay:10.37,2013-05-25 03:39:00,
2013-05-24 22:40:00,66.0,46.3,30.29,ESE,112,6.0,6.0,49,0.00,CLR,,0.00,WeatherDisplay:10.37,2013-05-25 03:40:00,
2013-05-24 22:42:00,66.0,46.3,30.29,ESE,112,6.0,6.0,49,0.00,CLR,,0.00,WeatherDisplay:10.37,2013-05-25 03:42:00,
2013-05-24 22:43:00,66.0,46.3,30.29,ESE,112,6.0,6.0,49,0.00,CLR,,0.00,WeatherDisplay:10.37,2013-05-25 03:43:00,
2013-05-24 22:44:00,66.0,46.3,30.29,ESE,112,6.0,6.0,49,0.00,CLR,,0.00,WeatherDisplay:10.37,2013-05-25 03:44:00,
2013-05-24 22:45:00,66.0,46.3,30.29,ESE,112,6.0,6.0,49,0.00,CLR,,0.00,WeatherDisplay:10.37,2013-05-25 03:45:00,
2013-05-24 22:47:00,66.0,46.3,30.29,ESE,112,6.0,6.0,49,0.00,CLR,,0.00,WeatherDisplay:10.37,2013-05-25 03:47:00,
2013-05-24 22:48:00,66.0,46.3,30.29,ESE,112,6.0,6.0,49,0.00,CLR,,0.00,WeatherDisplay:10.37,2013-05-25 03:48:00,
2013-05-24 22:50:00,66.0,46.3,30.29,ESE,112,6.0,6.0,49,0.00,CLR,,0.00,WeatherDisplay:10.37,2013-05-25 03:50:00,
2013-05-24 22:52:00,66.0,46.3,30.29,ESE,112,6.0,6.0,49,0.00,CLR,,0.00,WeatherDisplay:10.37,2013-05-25 03:52:00,
2013-05-24 22:53:00,66.0,46.3,30.29,ESE,112,6.0,6.0,49,0.00,CLR,,0.00,WeatherDisplay:10.37,2013-05-25 03:53:00,
2013-05-24 22:55:00,66.0,46.3,30.29,ESE,112,6.0,6.0,49,0.00,CLR,,0.00,WeatherDisplay:10.37,2013-05-25 03:55:00,
2013-05-24 22:56:00,66.0,46.3,30.29,ESE,112,6.0,6.0,49,0.00,CLR,,0.00,WeatherDisplay:10.37,2013-05-25 03:56:00,
2013-05-24 22:57:00,66.0,46.3,30.29,ESE,112,6.0,6.0,49,0.00,CLR,,0.00,WeatherDisplay:10.37,2013-05-25 03:57:00,
2013-05-24 22:58:00,66.0,46.3,30.29,ESE,112,6.0,6.0,49,0.00,CLR,,0.00,WeatherDisplay:10.37,2013-05-25 03:58:00,
2013-05-24 23:01:00,66.0,46.3,30.29,ESE,112,6.0,6.0,49,0.00,CLR,,0.00,WeatherDisplay:10.37,2013-05-25 04:01:00,
2013-05-24 23:06:00,66.0,46.3,30.29,ESE,112,6.0,6.0,49,0.00,CLR,,0.00,WeatherDisplay:10.37,2013-05-25 04:06:00,
2013-05-24 23:11:00,66.0,46.3,30.29,ESE,112,6.0,6.0,49,0.00,CLR,,0.00,WeatherDisplay:10.37,2013-05-25 04:11:00,
2013-05-24 23:12:00,66.0,46.3,30.29,ESE,112,6.0,6.0,49,0.00,CLR,,0.00,WeatherDisplay:10.37,2013-05-25 04:12:00,
2013-05-24 23:16:00,66.0,46.3,30.29,ESE,112,6.0,6.0,49,0.00,CLR,,0.00,WeatherDisplay:10.37,2013-05-25 04:16:00,
2013-05-24 23:17:00,66.0,46.3,30.29,ESE,112,6.0,6.0,49,0.00,CLR,,0.00,WeatherDisplay:10.37,2013-05-25 04:17:00,
2013-05-24 23:21:00,66.0,46.3,30.29,ESE,112,6.0,6.0,49,0.00,CLR,,0.00,WeatherDisplay:10.37,2013-05-25 04:21:00,
2013-05-24 23:22:00,66.0,46.3,30.29,ESE,112,6.0,6.0,49,0.00,CLR,,0.00,WeatherDisplay:10.37,2013-05-25 04:22:00,
2013-05-24 23:23:00,66.0,46.3,30.29,ESE,112,6.0,6.0,49,0.00,CLR,,0.00,WeatherDisplay:10.37,2013-05-25 04:23:00,
2013-05-24 23:26:00,66.0,46.3,30.29,ESE,112,6.0,6.0,49,0.00,CLR,,0.00,WeatherDisplay:10.37,2013-05-25 04:26:00,
2013-05-24 23:27:00,66.0,46.3,30.29,ESE,112,6.0,6.0,49,0.00,CLR,,0.00,WeatherDisplay:10.37,2013-05-25 04:27:00,
2013-05-24 23:28:00,66.0,46.3,30.29,ESE,112,6.0,6.0,49,0.00,CLR,,0.00,WeatherDisplay:10.37,2013-05-25 04:28:00,
2013-05-24 23:31:00,66.0,46.3,30.29,ESE,112,6.0,6.0,49,0.00,CLR,,0.00,WeatherDisplay:10.37,2013-05-25 04:31:00,
2013-05-24 23:32:00,66.0,46.3,30.29,ESE,112,6.0,6.0,49,0.00,CLR,,0.00,WeatherDisplay:10.37,2013-05-25 04:32:00,
2013-05-24 23:33:00,66.0,46.3,30.29,ESE,112,6.0,6.0,49,0.00,CLR,,0.00,WeatherDisplay:10.37,2013-05-25 04:33:00,
2013-05-24 23:36:00,66.0,46.3,30.29,ESE,112,6.0,6.0,49,0.00,CLR,,0.00,WeatherDisplay:10.37,2013-05-25 04:36:00,
2013-05-24 23:37:00,66.0,46.3,30.29,ESE,112,6.0,6.0,49,0.00,CLR,,0.00,WeatherDisplay:10.37,2013-05-25 04:37:00,
2013-05-24 23:38:00,66.0,46.3,30.29,ESE,112,6.0,6.0,49,0.00,CLR,,0.00,WeatherDisplay:10.37,2013-05-25 04:38:00,
2013-05-24 23:41:00,66.0,46.3,30.29,ESE,112,6.0,6.0,49,0.00,CLR,,0.00,WeatherDisplay:10.37,2013-05-25 04:41:00,
2013-05-24 23:42:00,66.0,46.3,30.29,ESE,112,6.0,6.0,49,0.00,CLR,,0.00,WeatherDisplay:10.37,2013-05-25 04:42:00,
2013-05-24 23:43:00,66.0,46.3,30.29,ESE,112,6.0,6.0,49,0.00,CLR,,0.00,WeatherDisplay:10.37,2013-05-25 04:43:00,
2013-05-24 23:44:00,66.0,46.3,30.29,ESE,112,6.0,6.0,49,0.00,CLR,,0.00,WeatherDisplay:10.37,2013-05-25 04:44:00,
2013-05-24 23:46:00,66.0,46.3,30.29,ESE,112,6.0,6.0,49,0.00,CLR,,0.00,WeatherDisplay:10.37,2013-05-25 04:46:00,
2013-05-24 23:47:00,66.0,46.3,30.29,ESE,112,6.0,6.0,49,0.00,CLR,,0.00,WeatherDisplay:10.37,2013-05-25 04:47:00,
2013-05-24 23:48:00,66.0,46.3,30.29,ESE,112,6.0,6.0,49,0.00,CLR,,0.00,WeatherDisplay:10.37,2013-05-25 04:48:00,
2013-05-24 23:49:00,66.0,46.3,30.29,ESE,112,6.0,6.0,49,0.00,CLR,,0.00,WeatherDisplay:10.37,2013-05-25 04:49:00,
2013-05-24 23:52:00,66.0,46.3,30.29,ESE,112,6.0,6.0,49,0.00,CLR,,0.00,WeatherDisplay:10.37,2013-05-25 04:52:00,
2013-05-24 23:53:00,66.0,46.3,30.29,ESE,112,6.0,6.0,49,0.00,CLR,,0.00,WeatherDisplay:10.37,2013-05-25 04:53:00,
2013-05-24 23:54:00,66.0,46.3,30.29,ESE,112,6.0,6.0,49,0.00,CLR,,0.00,WeatherDisplay:10.37,2013-05-25 04:54:00,
2013-05-24 23:57:00,66.0,46.3,30.29,ESE,112,6.0,6.0,49,0.00,CLR,,0.00,WeatherDisplay:10.37,2013-05-25 04:57:00,
2013-05-24 23:58:00,66.0,46.3,30.29,ESE,112,6.0,6.0,49,0.00,CLR,,0.00,WeatherDisplay:10.37,2013-05-25 04:58:00,
2013-05-24 23:59:00,66.0,46.3,30.29,ESE,112,6.0,6.0,49,0.00,CLR,,0.00,WeatherDisplay:10.37,2013-05-25 04:59:00,